| time (UTC) | temp F | wind direction | speed MPH | gust MPH | rain 1hr in | rain 24hr in | rain mn in | humidity % | barometer mb |
| 20260507074350 | 64 | 109 | 1.0 | 3.0 | 0.00 | 0.00 | 0.00 | 95 | 1005.5 |
| 20260507074251 | 64 | 92 | 0.0 | 3.0 | 0.00 | 0.00 | 0.00 | 95 | 1005.7 |
| 20260507074150 | 64 | 93 | 0.0 | 3.0 | 0.00 | 0.00 | 0.00 | 95 | 1005.9 |
| 20260507074051 | 64 | 93 | 0.0 | 3.0 | 0.00 | 0.00 | 0.00 | 95 | 1005.7 |
| 20260507073952 | 64 | 92 | 1.0 | 3.0 | 0.00 | 0.00 | 0.00 | 95 | 1005.6 |
| 20260507073851 | 64 | 89 | 1.0 | 3.0 | 0.00 | 0.00 | 0.00 | 95 | 1005.6 |
| 20260507073750 | 64 | 90 | 0.0 | 3.0 | 0.00 | 0.00 | 0.00 | 95 | 1005.6 |
| 20260507073650 | 64 | 90 | 0.0 | 3.0 | 0.00 | 0.00 | 0.00 | 95 | 1005.7 |
| 20260507073551 | 64 | 90 | 0.0 | 7.0 | 0.00 | 0.00 | 0.00 | 95 | 1005.9 |
| 20260507073450 | 64 | 89 | 1.0 | 7.0 | 0.00 | 0.00 | 0.00 | 95 | 1005.9 |
| 20260507073352 | 64 | 89 | 1.0 | 7.0 | 0.00 | 0.00 | 0.00 | 95 | 1006.0 |
| 20260507073251 | 64 | 23 | 0.0 | 7.0 | 0.00 | 0.00 | 0.00 | 95 | 1006.0 |
| 20260507073152 | 64 | 100 | 1.0 | 7.0 | 0.00 | 0.00 | 0.00 | 95 | 1005.9 |
| 20260507073050 | 64 | 100 | 1.0 | 7.0 | 0.00 | 0.00 | 0.00 | 95 | 1005.9 |
| 20260507072950 | 64 | 72 | 1.0 | 7.0 | 0.00 | 0.00 | 0.00 | 95 | 1005.8 |
| 20260507072850 | 64 | 69 | 1.0 | 7.0 | 0.00 | 0.00 | 0.00 | 95 | 1005.9 |
| 20260507072750 | 64 | 37 | 2.0 | 7.0 | 0.00 | 0.00 | 0.00 | 95 | 1005.9 |
| 20260507072651 | 64 | 24 | 2.0 | 7.0 | 0.00 | 0.00 | 0.00 | 95 | 1006.0 |
| 20260507072551 | 64 | 94 | 1.0 | 4.0 | 0.00 | 0.00 | 0.00 | 95 | 1006.1 |
| 20260507072450 | 64 | 168 | 0.0 | 4.0 | 0.00 | 0.00 | 0.00 | 95 | 1006.1 |
| 20260507072351 | 65 | 168 | 1.0 | 5.0 | 0.00 | 0.00 | 0.00 | 95 | 1006.1 |
| 20260507072251 | 65 | 168 | 1.0 | 5.0 | 0.00 | 0.00 | 0.00 | 95 | 1006.0 |
| 20260507072150 | 65 | 71 | 0.0 | 5.0 | 0.00 | 0.00 | 0.00 | 94 | 1006.0 |
| 20260507072051 | 65 | 92 | 1.0 | 5.0 | 0.00 | 0.00 | 0.00 | 94 | 1005.9 |
| 20260507071949 | 65 | 92 | 1.0 | 5.0 | 0.00 | 0.00 | 0.00 | 94 | 1005.8 |
| 20260507071851 | 65 | 97 | 1.0 | 5.0 | 0.00 | 0.00 | 0.00 | 94 | 1005.8 |
| 20260507071750 | 65 | 100 | 1.0 | 6.0 | 0.00 | 0.00 | 0.00 | 94 | 1005.7 |
| 20260507071650 | 65 | 100 | 1.0 | 6.0 | 0.00 | 0.00 | 0.00 | 94 | 1005.7 |
| 20260507071550 | 65 | 79 | 1.0 | 6.0 | 0.00 | 0.00 | 0.00 | 94 | 1005.8 |
| 20260507071449 | 65 | 79 | 1.0 | 6.0 | 0.00 | 0.00 | 0.00 | 94 | 1005.9 |
| 20260507071351 | 65 | 63 | 0.0 | 6.0 | 0.00 | 0.00 | 0.00 | 94 | 1005.9 |
| 20260507071251 | 65 | 56 | 1.0 | 6.0 | 0.00 | 0.00 | 0.00 | 94 | 1005.9 |
| 20260507071149 | 65 | 56 | 2.0 | 6.0 | 0.00 | 0.00 | 0.00 | 94 | 1005.8 |
| 20260507071049 | 65 | 82 | 2.0 | 6.0 | 0.00 | 0.00 | 0.00 | 94 | 1005.9 |
| 20260507070949 | 65 | 221 | 2.0 | 6.0 | 0.00 | 0.00 | 0.00 | 94 | 1005.7 |
| 20260507070850 | 65 | 86 | 1.0 | 6.0 | 0.00 | 0.00 | 0.00 | 94 | 1005.6 |
| 20260507070750 | 65 | 314 | 0.0 | 6.0 | 0.00 | 0.00 | 0.00 | 94 | 1005.6 |
| 20260507070650 | 65 | 125 | 2.0 | 6.0 | 0.00 | 0.00 | 0.00 | 94 | 1005.7 |
| 20260507070549 | 65 | 42 | 1.0 | 6.0 | 0.00 | 0.00 | 0.00 | 94 | 1005.8 |
| 20260507070450 | 65 | 90 | 1.0 | 4.0 | 0.00 | 0.00 | 0.00 | 94 | 1005.8 |
| 20260507070349 | 65 | 90 | 1.0 | 4.0 | 0.00 | 0.00 | 0.00 | 94 | 1005.7 |
| 20260507070251 | 65 | 100 | 1.0 | 4.0 | 0.00 | 0.00 | 0.00 | 94 | 1005.8 |
| 20260507070147 | 65 | 96 | 0.0 | 4.0 | 0.00 | 0.00 | 0.00 | 94 | 1005.9 |
| 20260507070032 | 65 | 96 | 0.0 | 4.0 | 0.00 | 0.00 | 0.00 | 94 | 1006.0 |
| 20260507065932 | 65 | 96 | 1.0 | 4.0 | 0.00 | 0.00 | 0.00 | 94 | 1006.1 |
| 20260507065830 | 65 | 102 | 1.0 | 4.0 | 0.00 | 0.00 | 0.00 | 94 | 1006.0 |
| 20260507065729 | 65 | 102 | 2.0 | 4.0 | 0.00 | 0.00 | 0.00 | 94 | 1006.2 |
| 20260507065625 | 65 | 59 | 2.0 | 4.0 | 0.00 | 0.00 | 0.00 | 94 | 1006.2 |
| 20260507065521 | 65 | 164 | 0.0 | 3.0 | 0.00 | 0.00 | 0.00 | 94 | 1006.3 |
| 20260507065418 | 65 | 159 | 0.0 | 3.0 | 0.00 | 0.00 | 0.00 | 94 | 1006.3 |
| 20260507065317 | 65 | 345 | 0.0 | 3.0 | 0.00 | 0.00 | 0.00 | 94 | 1006.3 |
| 20260507065213 | 65 | 345 | 0.0 | 3.0 | 0.00 | 0.00 | 0.00 | 94 | 1006.2 |
| 20260507065112 | 65 | 345 | 1.0 | 3.0 | 0.00 | 0.00 | 0.00 | 94 | 1006.2 |
| 20260507065005 | 65 | 52 | 0.0 | 2.0 | 0.00 | 0.00 | 0.00 | 94 | 1006.1 |
| 20260507064904 | 65 | 80 | 0.0 | 2.0 | 0.00 | 0.00 | 0.00 | 94 | 1006.1 |
| 20260507064804 | 65 | 79 | 0.0 | 2.0 | 0.00 | 0.00 | 0.00 | 94 | 1006.2 |
| 20260507064701 | 65 | 83 | 0.0 | 2.0 | 0.00 | 0.00 | 0.00 | 94 | 1006.2 |
| 20260507064602 | 65 | 48 | 0.0 | 2.0 | 0.00 | 0.00 | 0.00 | 94 | 1006.3 |
| 20260507064505 | 65 | 48 | 0.0 | 2.0 | 0.00 | 0.00 | 0.00 | 94 | 1006.3 |
| 20260507064404 | 65 | 353 | 0.0 | 2.0 | 0.00 | 0.00 | 0.00 | 94 | 1006.5 |
| 20260507064303 | 65 | 312 | 0.0 | 4.0 | 0.00 | 0.00 | 0.00 | 94 | 1006.4 |
| 20260507064209 | 65 | 140 | 0.0 | 4.0 | 0.00 | 0.00 | 0.00 | 94 | 1006.3 |
| 20260507064103 | 65 | 140 | 0.0 | 4.0 | 0.00 | 0.00 | 0.00 | 94 | 1006.2 |
| 20260507064002 | 65 | 141 | 0.0 | 4.0 | 0.00 | 0.00 | 0.00 | 94 | 1006.1 |
| 20260507063903 | 65 | 141 | 0.0 | 4.0 | 0.00 | 0.00 | 0.00 | 94 | 1006.0 |
| 20260507063803 | 65 | 141 | 0.0 | 4.0 | 0.00 | 0.00 | 0.00 | 94 | 1006.1 |
| 20260507063711 | 65 | 141 | 0.0 | 4.0 | 0.00 | 0.00 | 0.00 | 94 | 1006.1 |
| 20260507063602 | 65 | 141 | 0.0 | 4.0 | 0.00 | 0.00 | 0.00 | 94 | 1006.2 |
| 20260507063503 | 65 | 141 | 1.0 | 4.0 | 0.00 | 0.00 | 0.00 | 94 | 1006.2 |
| 20260507063402 | 65 | 141 | 1.0 | 4.0 | 0.00 | 0.00 | 0.00 | 94 | 1006.3 |
| 20260507063303 | 65 | 275 | 1.0 | 3.0 | 0.00 | 0.00 | 0.00 | 94 | 1006.2 |
| 20260507063203 | 65 | 97 | 0.0 | 2.0 | 0.00 | 0.00 | 0.00 | 94 | 1006.2 |
| 20260507063103 | 65 | 39 | 0.0 | 2.0 | 0.00 | 0.00 | 0.00 | 94 | 1006.1 |
| 20260507063002 | 65 | 39 | 0.0 | 2.0 | 0.00 | 0.00 | 0.00 | 94 | 1006.0 |
| 20260507062904 | 65 | 39 | 0.0 | 2.0 | 0.00 | 0.00 | 0.00 | 94 | 1006.1 |
| 20260507062803 | 65 | 120 | 0.0 | 3.0 | 0.00 | 0.00 | 0.00 | 94 | 1006.2 |
| 20260507062704 | 65 | 120 | 0.0 | 3.0 | 0.00 | 0.00 | 0.00 | 94 | 1006.3 |
| 20260507062602 | 65 | 118 | 0.0 | 3.0 | 0.00 | 0.00 | 0.00 | 94 | 1006.3 |
| 20260507062503 | 65 | 118 | 0.0 | 4.0 | 0.00 | 0.00 | 0.00 | 94 | 1006.3 |
| 20260507062403 | 65 | 71 | 0.0 | 4.0 | 0.00 | 0.00 | 0.00 | 94 | 1006.3 |
| 20260507062305 | 65 | 71 | 0.0 | 4.0 | 0.00 | 0.00 | 0.00 | 94 | 1006.5 |
| 20260507062203 | 65 | 71 | 0.0 | 4.0 | 0.00 | 0.00 | 0.00 | 94 | 1006.5 |
| 20260507062109 | 65 | 69 | 0.0 | 4.0 | 0.00 | 0.00 | 0.00 | 94 | 1006.5 |
| 20260507062003 | 65 | 69 | 1.0 | 4.0 | 0.00 | 0.00 | 0.00 | 94 | 1006.3 |
| 20260507061906 | 65 | 65 | 1.0 | 4.0 | 0.00 | 0.00 | 0.00 | 94 | 1006.2 |
| 20260507061801 | 65 | 142 | 1.0 | 4.0 | 0.00 | 0.00 | 0.00 | 94 | 1006.0 |
| 20260507061702 | 65 | 142 | 1.0 | 4.0 | 0.00 | 0.00 | 0.00 | 94 | 1005.9 |
| 20260507061603 | 65 | 141 | 0.0 | 4.0 | 0.00 | 0.00 | 0.00 | 93 | 1005.8 |
| 20260507061504 | 65 | 52 | 0.0 | 2.0 | 0.00 | 0.00 | 0.00 | 94 | 1005.9 |
| 20260507061402 | 65 | 42 | 0.0 | 2.0 | 0.00 | 0.00 | 0.00 | 94 | 1005.9 |
| 20260507061304 | 65 | 41 | 0.0 | 2.0 | 0.00 | 0.00 | 0.00 | 94 | 1006.0 |
| 20260507061202 | 65 | 35 | 0.0 | 2.0 | 0.00 | 0.00 | 0.00 | 93 | 1006.0 |
| 20260507061103 | 65 | 103 | 0.0 | 2.0 | 0.00 | 0.00 | 0.00 | 93 | 1006.0 |
| 20260507061006 | 65 | 103 | 0.0 | 2.0 | 0.00 | 0.00 | 0.00 | 93 | 1006.0 |
| 20260507060904 | 65 | 103 | 0.0 | 2.0 | 0.00 | 0.00 | 0.00 | 93 | 1006.0 |
| 20260507060802 | 65 | 107 | 0.0 | 2.0 | 0.00 | 0.00 | 0.00 | 93 | 1006.1 |
| 20260507060704 | 65 | 107 | 0.0 | 2.0 | 0.00 | 0.00 | 0.00 | 93 | 1006.1 |
| 20260507060603 | 65 | 62 | 0.0 | 2.0 | 0.00 | 0.00 | 0.00 | 93 | 1006.1 |
| 20260507060504 | 65 | 62 | 0.0 | 2.0 | 0.00 | 0.00 | 0.00 | 93 | 1006.1 |
| 20260507060403 | 65 | 130 | 0.0 | 2.0 | 0.00 | 0.00 | 0.00 | 93 | 1006.0 |
| 20260507060304 | 65 | 116 | 0.0 | 2.0 | 0.00 | 0.00 | 0.00 | 93 | 1006.1 |
| 20260507060203 | 65 | 103 | 0.0 | 3.0 | 0.00 | 0.00 | 0.00 | 93 | 1006.1 |
| 20260507060105 | 65 | 93 | 0.0 | 5.0 | 0.00 | 0.00 | 0.00 | 93 | 1006.2 |
| 20260507060005 | 65 | 93 | 0.0 | 5.0 | 0.00 | 0.00 | 0.00 | 93 | 1006.1 |
| 20260507055903 | 65 | 45 | 0.0 | 5.0 | 0.00 | 0.00 | 0.00 | 93 | 1006.2 |
| 20260507055804 | 65 | 45 | 0.0 | 5.0 | 0.00 | 0.00 | 0.00 | 93 | 1006.0 |
| 20260507055703 | 65 | 45 | 0.0 | 5.0 | 0.00 | 0.00 | 0.00 | 93 | 1006.0 |
| 20260507055604 | 65 | 45 | 0.0 | 5.0 | 0.00 | 0.00 | 0.00 | 93 | 1006.0 |
| 20260507055503 | 65 | 193 | 0.0 | 5.0 | 0.00 | 0.00 | 0.00 | 93 | 1005.9 |
| 20260507055402 | 65 | 224 | 1.0 | 5.0 | 0.00 | 0.00 | 0.00 | 93 | 1005.7 |
| 20260507055306 | 65 | 85 | 2.0 | 5.0 | 0.00 | 0.00 | 0.00 | 93 | 1005.7 |
| 20260507055205 | 65 | 79 | 1.0 | 5.0 | 0.00 | 0.00 | 0.00 | 93 | 1005.6 |
| 20260507055102 | 65 | 128 | 0.0 | 3.0 | 0.00 | 0.00 | 0.00 | 93 | 1005.5 |
| 20260507055003 | 65 | 123 | 0.0 | 3.0 | 0.00 | 0.00 | 0.00 | 93 | 1005.5 |
| 20260507054902 | 65 | 128 | 1.0 | 3.0 | 0.00 | 0.00 | 0.00 | 93 | 1005.5 |
| 20260507054802 | 65 | 130 | 1.0 | 3.0 | 0.00 | 0.00 | 0.00 | 93 | 1005.6 |
| 20260507054704 | 65 | 87 | 0.0 | 6.0 | 0.00 | 0.00 | 0.00 | 93 | 1005.6 |
| 20260507054604 | 65 | 320 | 1.0 | 6.0 | 0.00 | 0.00 | 0.00 | 93 | 1005.7 |
| 20260507054504 | 65 | 117 | 1.0 | 6.0 | 0.00 | 0.00 | 0.00 | 93 | 1005.7 |
| 20260507054402 | 65 | 87 | 1.0 | 6.0 | 0.00 | 0.00 | 0.00 | 93 | 1005.7 |
| 20260507054302 | 65 | 89 | 1.0 | 6.0 | 0.00 | 0.00 | 0.00 | 93 | 1005.7 |
| 20260507054202 | 65 | 83 | 0.0 | 6.0 | 0.00 | 0.00 | 0.00 | 93 | 1005.7 |
| 20260507054102 | 65 | 37 | 0.0 | 6.0 | 0.00 | 0.00 | 0.00 | 93 | 1005.7 |
| 20260507054003 | 65 | 37 | 0.0 | 6.0 | 0.00 | 0.00 | 0.00 | 93 | 1005.7 |
| 20260507053904 | 65 | 37 | 1.0 | 6.0 | 0.00 | 0.00 | 0.00 | 93 | 1005.8 |
| 20260507053802 | 65 | 34 | 1.0 | 6.0 | 0.00 | 0.00 | 0.00 | 93 | 1005.8 |
| 20260507053704 | 65 | 124 | 0.0 | 4.0 | 0.00 | 0.00 | 0.00 | 93 | 1006.0 |
| 20260507053605 | 65 | 124 | 1.0 | 4.0 | 0.00 | 0.00 | 0.00 | 93 | 1006.0 |
| 20260507053502 | 65 | 100 | 2.0 | 4.0 | 0.00 | 0.00 | 0.00 | 93 | 1006.0 |
| 20260507053403 | 65 | 89 | 1.0 | 5.0 | 0.00 | 0.00 | 0.00 | 93 | 1006.0 |
| 20260507053302 | 65 | 248 | 0.0 | 5.0 | 0.00 | 0.00 | 0.00 | 93 | 1006.0 |
| 20260507053204 | 65 | 250 | 1.0 | 5.0 | 0.00 | 0.00 | 0.00 | 93 | 1006.0 |
| 20260507053107 | 65 | 145 | 1.0 | 5.0 | 0.00 | 0.00 | 0.00 | 93 | 1006.0 |
| 20260507053004 | 65 | 49 | 1.0 | 5.0 | 0.00 | 0.00 | 0.00 | 93 | 1006.0 |
| 20260507052904 | 65 | 80 | 1.0 | 5.0 | 0.00 | 0.00 | 0.00 | 93 | 1006.0 |
| 20260507052803 | 65 | 94 | 0.0 | 5.0 | 0.00 | 0.00 | 0.00 | 93 | 1006.0 |
| 20260507052703 | 65 | 82 | 0.0 | 5.0 | 0.00 | 0.00 | 0.00 | 93 | 1006.0 |
| 20260507052605 | 65 | 82 | 1.0 | 5.0 | 0.00 | 0.00 | 0.00 | 93 | 1005.9 |
| 20260507052505 | 65 | 79 | 1.0 | 5.0 | 0.00 | 0.00 | 0.00 | 93 | 1005.9 |
| 20260507052405 | 65 | 107 | 0.0 | 5.0 | 0.00 | 0.00 | 0.00 | 93 | 1006.0 |
| 20260507052306 | 65 | 104 | 0.0 | 5.0 | 0.00 | 0.00 | 0.00 | 93 | 1006.1 |
| 20260507052202 | 65 | 103 | 0.0 | 5.0 | 0.00 | 0.00 | 0.00 | 93 | 1006.1 |
| 20260507052103 | 65 | 104 | 0.0 | 5.0 | 0.00 | 0.00 | 0.00 | 93 | 1006.0 |
| 20260507052002 | 66 | 104 | 2.0 | 5.0 | 0.00 | 0.00 | 0.00 | 93 | 1006.1 |
| 20260507051904 | 66 | 59 | 2.0 | 5.0 | 0.00 | 0.00 | 0.00 | 93 | 1006.0 |
| 20260507051802 | 66 | 326 | 0.0 | 3.0 | 0.00 | 0.00 | 0.00 | 93 | 1006.0 |
| 20260507051703 | 66 | 51 | 0.0 | 3.0 | 0.00 | 0.00 | 0.00 | 93 | 1006.0 |
| 20260507051602 | 66 | 51 | 0.0 | 3.0 | 0.00 | 0.00 | 0.00 | 93 | 1006.0 |
| 20260507051504 | 66 | 51 | 0.0 | 3.0 | 0.00 | 0.00 | 0.00 | 93 | 1005.8 |
| 20260507051403 | 66 | 51 | 0.0 | 5.0 | 0.00 | 0.00 | 0.00 | 93 | 1005.9 |
| 20260507051302 | 66 | 48 | 0.0 | 5.0 | 0.00 | 0.00 | 0.00 | 93 | 1005.7 |
| 20260507051203 | 66 | 48 | 0.0 | 5.0 | 0.00 | 0.00 | 0.00 | 93 | 1005.7 |
| 20260507051104 | 66 | 145 | 0.0 | 5.0 | 0.00 | 0.00 | 0.00 | 93 | 1005.7 |
| 20260507051003 | 66 | 145 | 1.0 | 5.0 | 0.00 | 0.00 | 0.00 | 93 | 1005.7 |
| 20260507050902 | 66 | 138 | 1.0 | 5.0 | 0.00 | 0.00 | 0.00 | 93 | 1005.7 |
| 20260507050805 | 66 | 272 | 0.0 | 5.0 | 0.00 | 0.00 | 0.00 | 93 | 1005.7 |
| 20260507050702 | 66 | 272 | 1.0 | 5.0 | 0.00 | 0.00 | 0.00 | 93 | 1005.7 |
| 20260507050604 | 66 | 272 | 1.0 | 5.0 | 0.00 | 0.00 | 0.00 | 93 | 1005.6 |
| 20260507050504 | 66 | 17 | 1.0 | 5.0 | 0.00 | 0.00 | 0.00 | 93 | 1005.6 |
| 20260507050402 | 66 | 141 | 0.0 | 5.0 | 0.00 | 0.00 | 0.00 | 93 | 1005.6 |
| 20260507050303 | 66 | 140 | 0.0 | 5.0 | 0.00 | 0.00 | 0.00 | 93 | 1005.6 |
| 20260507050203 | 66 | 107 | 0.0 | 5.0 | 0.00 | 0.00 | 0.00 | 93 | 1005.7 |
| 20260507050003 | 66 | 75 | 2.0 | 10.0 | 0.00 | 0.00 | 0.00 | 93 | 1005.6 |
| 20260507045904 | 66 | 133 | 1.0 | 10.0 | 0.00 | 0.00 | 0.00 | 93 | 1005.6 |
| 20260507045803 | 66 | 93 | 1.0 | 10.0 | 0.00 | 0.00 | 0.00 | 93 | 1005.7 |
| 20260507045702 | 66 | 90 | 1.0 | 10.0 | 0.00 | 0.00 | 0.00 | 93 | 1005.6 |
| 20260507045602 | 66 | 76 | 0.0 | 10.0 | 0.00 | 0.00 | 0.00 | 93 | 1005.6 |
| 20260507045502 | 66 | 27 | 1.0 | 10.0 | 0.00 | 0.00 | 0.00 | 93 | 1005.5 |
| 20260507045403 | 66 | 30 | 0.0 | 10.0 | 0.00 | 0.00 | 0.00 | 93 | 1005.5 |
| 20260507045302 | 66 | 107 | 2.0 | 10.0 | 0.00 | 0.00 | 0.00 | 93 | 1005.6 |
| 20260507045204 | 66 | 104 | 2.0 | 10.0 | 0.00 | 0.00 | 0.00 | 93 | 1005.5 |
| 20260507045102 | 66 | 31 | 1.0 | 4.0 | 0.00 | 0.00 | 0.00 | 93 | 1005.5 |
| 20260507045003 | 66 | 75 | 1.0 | 4.0 | 0.00 | 0.00 | 0.00 | 92 | 1005.5 |
| 20260507044903 | 66 | 72 | 1.0 | 4.0 | 0.00 | 0.00 | 0.00 | 92 | 1005.6 |
| 20260507044802 | 66 | 94 | 1.0 | 4.0 | 0.00 | 0.00 | 0.00 | 92 | 1005.6 |
| 20260507044702 | 66 | 94 | 2.0 | 5.0 | 0.00 | 0.00 | 0.00 | 92 | 1005.5 |
| 20260507044604 | 66 | 130 | 1.0 | 5.0 | 0.00 | 0.00 | 0.00 | 92 | 1005.6 |
| 20260507044503 | 66 | 82 | 0.0 | 7.0 | 0.00 | 0.00 | 0.00 | 92 | 1005.6 |
| 20260507044401 | 66 | 193 | 0.0 | 7.0 | 0.00 | 0.00 | 0.00 | 92 | 1005.6 |
| 20260507044303 | 66 | 85 | 0.0 | 7.0 | 0.00 | 0.00 | 0.00 | 92 | 1005.6 |
| 20260507044202 | 66 | 85 | 0.0 | 7.0 | 0.00 | 0.00 | 0.00 | 92 | 1005.6 |
| 20260507044104 | 66 | 85 | 1.0 | 7.0 | 0.00 | 0.00 | 0.00 | 92 | 1005.5 |
| 20260507044004 | 66 | 85 | 2.0 | 7.0 | 0.00 | 0.00 | 0.00 | 92 | 1005.6 |
| 20260507043904 | 66 | 56 | 2.0 | 7.0 | 0.00 | 0.00 | 0.00 | 92 | 1005.6 |
| 20260507043804 | 66 | 75 | 0.0 | 7.0 | 0.00 | 0.00 | 0.00 | 92 | 1005.7 |
| 20260507043704 | 66 | 90 | 1.0 | 7.0 | 0.00 | 0.00 | 0.00 | 92 | 1005.6 |
| 20260507043603 | 66 | 86 | 2.0 | 7.0 | 0.00 | 0.00 | 0.00 | 92 | 1005.6 |
| 20260507043504 | 66 | 124 | 2.0 | 5.0 | 0.00 | 0.00 | 0.00 | 92 | 1005.7 |
| 20260507043403 | 66 | 145 | 1.0 | 3.0 | 0.00 | 0.00 | 0.00 | 92 | 1005.7 |
| 20260507043304 | 67 | 41 | 0.0 | 3.0 | 0.00 | 0.00 | 0.00 | 92 | 1005.7 |
| 20260507043204 | 67 | 41 | 0.0 | 3.0 | 0.00 | 0.00 | 0.00 | 92 | 1005.7 |
| 20260507043106 | 67 | 327 | 0.0 | 3.0 | 0.00 | 0.00 | 0.00 | 92 | 1005.7 |
| 20260507043003 | 67 | 324 | 0.0 | 3.0 | 0.00 | 0.00 | 0.00 | 92 | 1005.7 |
| 20260507042902 | 67 | 340 | 1.0 | 3.0 | 0.00 | 0.00 | 0.00 | 92 | 1005.6 |
| 20260507042804 | 67 | 34 | 1.0 | 3.0 | 0.00 | 0.00 | 0.00 | 92 | 1005.7 |
| 20260507042704 | 67 | 116 | 0.0 | 3.0 | 0.00 | 0.00 | 0.00 | 92 | 1005.6 |
| 20260507042603 | 67 | 158 | 0.0 | 4.0 | 0.00 | 0.00 | 0.00 | 92 | 1005.7 |
| 20260507042504 | 67 | 113 | 0.0 | 4.0 | 0.00 | 0.00 | 0.00 | 92 | 1005.6 |
| 20260507042402 | 67 | 113 | 0.0 | 4.0 | 0.00 | 0.00 | 0.00 | 92 | 1005.6 |
| 20260507042306 | 67 | 113 | 0.0 | 5.0 | 0.00 | 0.00 | 0.00 | 92 | 1005.6 |
| 20260507042203 | 67 | 42 | 1.0 | 5.0 | 0.00 | 0.00 | 0.00 | 92 | 1005.5 |
| 20260507042102 | 67 | 127 | 0.0 | 5.0 | 0.00 | 0.00 | 0.00 | 92 | 1005.6 |
| 20260507042005 | 67 | 0 | 1.0 | 5.0 | 0.00 | 0.00 | 0.00 | 92 | 1005.5 |
| 20260507041902 | 67 | 0 | 1.0 | 5.0 | 0.00 | 0.00 | 0.00 | 92 | 1005.5 |
| 20260507041803 | 67 | 326 | 2.0 | 5.0 | 0.00 | 0.00 | 0.00 | 92 | 1005.5 |
| 20260507041704 | 67 | 100 | 2.0 | 5.0 | 0.00 | 0.00 | 0.00 | 92 | 1005.5 |
| 20260507041603 | 67 | 102 | 1.0 | 5.0 | 0.00 | 0.00 | 0.00 | 92 | 1005.6 |
| 20260507041502 | 67 | 31 | 1.0 | 5.0 | 0.00 | 0.00 | 0.00 | 92 | 1005.5 |
| 20260507041403 | 67 | 31 | 1.0 | 5.0 | 0.00 | 0.00 | 0.00 | 92 | 1005.5 |
| 20260507041304 | 67 | 269 | 0.0 | 5.0 | 0.00 | 0.00 | 0.00 | 92 | 1005.6 |
| 20260507041203 | 67 | 79 | 2.0 | 5.0 | 0.00 | 0.00 | 0.00 | 92 | 1005.6 |
| 20260507041103 | 67 | 78 | 2.0 | 5.0 | 0.00 | 0.00 | 0.00 | 92 | 1005.7 |
| 20260507041003 | 67 | 65 | 2.0 | 5.0 | 0.00 | 0.00 | 0.00 | 92 | 1005.7 |
| 20260507040903 | 67 | 65 | 2.0 | 5.0 | 0.00 | 0.00 | 0.00 | 92 | 1005.6 |
| 20260507040802 | 67 | 123 | 0.0 | 4.0 | 0.00 | 0.00 | 0.00 | 92 | 1005.6 |
| 20260507040705 | 67 | 213 | 0.0 | 4.0 | 0.00 | 0.00 | 0.00 | 92 | 1005.6 |
| 20260507040603 | 67 | 118 | 0.0 | 4.0 | 0.00 | 0.00 | 0.00 | 92 | 1005.5 |
| 20260507040503 | 67 | 79 | 0.0 | 4.0 | 0.00 | 0.00 | 0.00 | 92 | 1005.5 |
| 20260507040405 | 67 | 44 | 0.0 | 4.0 | 0.00 | 0.00 | 0.00 | 92 | 1005.5 |
| 20260507040304 | 67 | 103 | 1.0 | 4.0 | 0.00 | 0.00 | 0.00 | 92 | 1005.6 |
| 20260507040202 | 67 | 103 | 1.0 | 4.0 | 0.00 | 0.00 | 0.00 | 92 | 1005.5 |
| 20260507040002 | 67 | 134 | 0.0 | 4.0 | 0.00 | 0.00 | 0.00 | 92 | 1005.6 |
| 20260507035903 | 67 | 135 | 0.0 | 4.0 | 0.00 | 0.00 | 0.00 | 92 | 1005.6 |
| 20260507035803 | 67 | 135 | 0.0 | 4.0 | 0.00 | 0.00 | 0.00 | 92 | 1005.6 |
| 20260507035704 | 67 | 134 | 0.0 | 4.0 | 0.00 | 0.00 | 0.00 | 92 | 1005.7 |
| 20260507035603 | 67 | 134 | 0.0 | 4.0 | 0.00 | 0.00 | 0.00 | 92 | 1005.6 |
| 20260507035503 | 67 | 118 | 1.0 | 4.0 | 0.00 | 0.00 | 0.00 | 92 | 1005.6 |
| 20260507035404 | 67 | 37 | 1.0 | 4.0 | 0.00 | 0.00 | 0.00 | 92 | 1005.5 |
| 20260507035306 | 67 | 59 | 0.0 | 4.0 | 0.00 | 0.00 | 0.00 | 92 | 1005.5 |
| 20260507035203 | 67 | 92 | 0.0 | 1.0 | 0.00 | 0.00 | 0.00 | 92 | 1005.5 |
| 20260507035103 | 67 | 51 | 0.0 | 1.0 | 0.00 | 0.00 | 0.00 | 92 | 1005.5 |
| 20260507035002 | 67 | 27 | 0.0 | 1.0 | 0.00 | 0.00 | 0.00 | 92 | 1005.6 |
| 20260507034903 | 67 | 51 | 0.0 | 1.0 | 0.00 | 0.00 | 0.00 | 92 | 1005.6 |
| 20260507034802 | 67 | 51 | 0.0 | 1.0 | 0.00 | 0.00 | 0.00 | 92 | 1005.7 |
| 20260507034702 | 67 | 51 | 0.0 | 1.0 | 0.00 | 0.00 | 0.00 | 92 | 1005.6 |
| 20260507034604 | 67 | 63 | 0.0 | 1.0 | 0.00 | 0.00 | 0.00 | 92 | 1005.8 |
| 20260507034504 | 67 | 62 | 0.0 | 1.0 | 0.00 | 0.00 | 0.00 | 92 | 1005.8 |
| 20260507034403 | 67 | 62 | 0.0 | 1.0 | 0.00 | 0.00 | 0.00 | 92 | 1005.8 |
| 20260507034303 | 68 | 62 | 0.0 | 1.0 | 0.00 | 0.00 | 0.00 | 92 | 1005.8 |
| 20260507034202 | 68 | 306 | 0.0 | 1.0 | 0.00 | 0.00 | 0.00 | 92 | 1005.7 |
| 20260507034105 | 68 | 306 | 0.0 | 2.0 | 0.00 | 0.00 | 0.00 | 92 | 1005.6 |
| 20260507034003 | 68 | 103 | 0.0 | 2.0 | 0.00 | 0.00 | 0.00 | 92 | 1005.5 |
| 20260507033904 | 68 | 347 | 0.0 | 3.0 | 0.00 | 0.00 | 0.00 | 92 | 1005.6 |
| 20260507033803 | 68 | 45 | 0.0 | 3.0 | 0.00 | 0.00 | 0.00 | 92 | 1005.6 |
| 20260507033703 | 68 | 96 | 0.0 | 3.0 | 0.00 | 0.00 | 0.00 | 92 | 1005.7 |
| 20260507033606 | 68 | 104 | 0.0 | 3.0 | 0.00 | 0.00 | 0.00 | 92 | 1005.7 |
| 20260507033504 | 68 | 104 | 0.0 | 3.0 | 0.00 | 0.00 | 0.00 | 92 | 1005.8 |
| 20260507033403 | 68 | 104 | 0.0 | 3.0 | 0.00 | 0.00 | 0.00 | 92 | 1005.7 |
| 20260507033303 | 68 | 104 | 0.0 | 3.0 | 0.00 | 0.00 | 0.00 | 92 | 1005.7 |
| 20260507033203 | 68 | 93 | 0.0 | 3.0 | 0.00 | 0.00 | 0.00 | 92 | 1005.8 |
| 20260507033103 | 68 | 185 | 0.0 | 3.0 | 0.00 | 0.00 | 0.00 | 92 | 1005.8 |
| 20260507033002 | 68 | 127 | 0.0 | 3.0 | 0.00 | 0.00 | 0.00 | 92 | 1005.8 |
| 20260507032902 | 68 | 1 | 0.0 | 3.0 | 0.00 | 0.00 | 0.00 | 92 | 1005.7 |
| 20260507032802 | 68 | 1 | 0.0 | 3.0 | 0.00 | 0.01 | 0.00 | 92 | 1005.7 |
| 20260507032702 | 68 | 0 | 0.0 | 3.0 | 0.00 | 0.01 | 0.00 | 92 | 1005.8 |
| 20260507032602 | 68 | 347 | 0.0 | 3.0 | 0.00 | 0.01 | 0.00 | 92 | 1005.6 |
| 20260507032505 | 68 | 100 | 1.0 | 3.0 | 0.00 | 0.01 | 0.00 | 92 | 1005.6 |
| 20260507032404 | 68 | 93 | 1.0 | 3.0 | 0.00 | 0.01 | 0.00 | 92 | 1005.5 |
| 20260507032305 | 68 | 195 | 0.0 | 1.0 | 0.00 | 0.01 | 0.00 | 92 | 1005.5 |
| 20260507032204 | 68 | 183 | 0.0 | 1.0 | 0.00 | 0.01 | 0.00 | 92 | 1005.4 |
| 20260507032102 | 68 | 183 | 0.0 | 1.0 | 0.00 | 0.01 | 0.00 | 92 | 1005.3 |
| 20260507032002 | 68 | 183 | 0.0 | 2.0 | 0.00 | 0.01 | 0.00 | 92 | 1005.3 |
| 20260507031902 | 68 | 183 | 0.0 | 2.0 | 0.00 | 0.01 | 0.00 | 92 | 1005.3 |
| 20260507031802 | 68 | 183 | 0.0 | 2.0 | 0.00 | 0.01 | 0.00 | 92 | 1005.2 |
| 20260507031703 | 68 | 183 | 0.0 | 2.0 | 0.00 | 0.01 | 0.00 | 92 | 1005.2 |
| 20260507031602 | 68 | 202 | 0.0 | 3.0 | 0.00 | 0.01 | 0.00 | 92 | 1005.1 |
| 20260507031503 | 68 | 202 | 0.0 | 3.0 | 0.00 | 0.01 | 0.00 | 91 | 1005.1 |
| 20260507031403 | 68 | 202 | 0.0 | 3.0 | 0.00 | 0.01 | 0.00 | 91 | 1005.1 |
| 20260507031303 | 68 | 202 | 0.0 | 3.0 | 0.00 | 0.01 | 0.00 | 91 | 1005.0 |
| 20260507031202 | 68 | 202 | 0.0 | 3.0 | 0.00 | 0.01 | 0.00 | 91 | 1005.0 |
| 20260507031103 | 68 | 200 | 0.0 | 3.0 | 0.00 | 0.01 | 0.00 | 91 | 1005.1 |
| 20260507031002 | 68 | 123 | 0.0 | 3.0 | 0.00 | 0.01 | 0.00 | 91 | 1005.0 |
| 20260507030903 | 68 | 123 | 1.0 | 3.0 | 0.00 | 0.01 | 0.00 | 91 | 1005.1 |
| 20260507030803 | 68 | 124 | 1.0 | 3.0 | 0.00 | 0.01 | 0.00 | 91 | 1005.1 |
| 20260507030705 | 68 | 243 | 0.0 | 3.0 | 0.00 | 0.01 | 0.00 | 91 | 1005.1 |
| 20260507030603 | 68 | 185 | 0.0 | 3.0 | 0.00 | 0.01 | 0.00 | 91 | 1005.1 |
| 20260507030504 | 68 | 186 | 0.0 | 3.0 | 0.00 | 0.01 | 0.00 | 91 | 1005.0 |
| 20260507030402 | 68 | 186 | 1.0 | 3.0 | 0.00 | 0.01 | 0.00 | 91 | 1005.0 |
| 20260507030304 | 68 | 87 | 1.0 | 3.0 | 0.00 | 0.01 | 0.00 | 91 | 1004.8 |
| 20260507030206 | 68 | 87 | 1.0 | 3.0 | 0.00 | 0.01 | 0.00 | 92 | 1004.8 |
| 20260507030006 | 69 | 117 | 0.0 | 3.0 | 0.00 | 0.01 | 0.00 | 91 | 1004.7 |
| 20260507025903 | 69 | 217 | 0.0 | 3.0 | 0.00 | 0.01 | 0.00 | 91 | 1004.7 |
| 20260507025802 | 69 | 219 | 1.0 | 3.0 | 0.00 | 0.01 | 0.00 | 91 | 1004.6 |
| 20260507025704 | 69 | 127 | 0.0 | 3.0 | 0.00 | 0.01 | 0.00 | 91 | 1004.7 |
| 20260507025558 | 69 | 92 | 0.0 | 3.0 | 0.00 | 0.01 | 0.00 | 91 | 1004.5 |
| 20260507025454 | 69 | 89 | 0.0 | 3.0 | 0.00 | 0.01 | 0.00 | 91 | 1004.6 |
| 20260507025346 | 69 | 90 | 0.0 | 3.0 | 0.00 | 0.01 | 0.00 | 91 | 1004.6 |
| 20260507025244 | 69 | 89 | 0.0 | 3.0 | 0.00 | 0.01 | 0.00 | 91 | 1004.6 |
| 20260507025144 | 69 | 89 | 0.0 | 3.0 | 0.00 | 0.01 | 0.00 | 91 | 1004.5 |
| 20260507025046 | 69 | 87 | 0.0 | 3.0 | 0.00 | 0.01 | 0.00 | 91 | 1004.5 |
| 20260507024943 | 69 | 0 | 0.0 | 3.0 | 0.00 | 0.01 | 0.00 | 91 | 1004.5 |
| 20260507024844 | 69 | 6 | 1.0 | 3.0 | 0.00 | 0.01 | 0.00 | 91 | 1004.4 |
| 20260507024743 | 69 | 1 | 0.0 | 2.0 | 0.00 | 0.01 | 0.00 | 91 | 1004.4 |
| 20260507024645 | 69 | 37 | 0.0 | 2.0 | 0.00 | 0.01 | 0.00 | 91 | 1004.4 |
| 20260507024545 | 69 | 39 | 0.0 | 2.0 | 0.00 | 0.01 | 0.00 | 91 | 1004.4 |
| 20260507024444 | 69 | 78 | 0.0 | 2.0 | 0.00 | 0.01 | 0.00 | 91 | 1004.4 |
| 20260507024345 | 69 | 76 | 0.0 | 2.0 | 0.00 | 0.01 | 0.00 | 91 | 1004.3 |
| 20260507024244 | 69 | 76 | 0.0 | 2.0 | 0.00 | 0.01 | 0.00 | 91 | 1004.3 |
| 20260507024143 | 69 | 76 | 1.0 | 2.0 | 0.00 | 0.01 | 0.00 | 91 | 1004.3 |
| 20260507024044 | 69 | 125 | 0.0 | 2.0 | 0.00 | 0.01 | 0.00 | 91 | 1004.2 |
| 20260507023945 | 69 | 123 | 0.0 | 6.0 | 0.00 | 0.01 | 0.00 | 91 | 1004.2 |
| 20260507023844 | 69 | 118 | 0.0 | 6.0 | 0.00 | 0.01 | 0.00 | 91 | 1004.1 |
| 20260507023746 | 69 | 125 | 1.0 | 6.0 | 0.00 | 0.01 | 0.00 | 91 | 1004.2 |
| 20260507023643 | 69 | 266 | 0.0 | 9.0 | 0.00 | 0.01 | 0.00 | 91 | 1004.2 |
| 20260507023544 | 69 | 203 | 0.0 | 9.0 | 0.00 | 0.01 | 0.00 | 91 | 1004.2 |
| 20260507023444 | 69 | 124 | 0.0 | 9.0 | 0.00 | 0.01 | 0.00 | 91 | 1004.2 |
| 20260507023344 | 69 | 125 | 0.0 | 9.0 | 0.00 | 0.01 | 0.00 | 91 | 1004.2 |
| 20260507023243 | 69 | 123 | 0.0 | 9.0 | 0.00 | 0.01 | 0.00 | 91 | 1004.1 |
| 20260507023143 | 69 | 157 | 1.0 | 9.0 | 0.00 | 0.01 | 0.00 | 91 | 1004.1 |
| 20260507023043 | 69 | 0 | 2.0 | 9.0 | 0.00 | 0.01 | 0.00 | 91 | 1004.0 |
| 20260507022943 | 69 | 127 | 1.0 | 9.0 | 0.00 | 0.01 | 0.00 | 91 | 1004.0 |
| 20260507022845 | 69 | 38 | 2.0 | 9.0 | 0.00 | 0.01 | 0.00 | 92 | 1003.9 |
| 20260507022743 | 69 | 355 | 1.0 | 9.0 | 0.00 | 0.01 | 0.00 | 92 | 1004.0 |
| 20260507022644 | 69 | 109 | 0.0 | 2.0 | 0.00 | 0.01 | 0.00 | 92 | 1004.0 |
| 20260507022546 | 69 | 7 | 0.0 | 2.0 | 0.00 | 0.01 | 0.00 | 92 | 1003.9 |
| 20260507022444 | 69 | 283 | 0.0 | 2.0 | 0.00 | 0.01 | 0.00 | 92 | 1003.9 |
| 20260507022343 | 69 | 264 | 0.0 | 2.0 | 0.00 | 0.01 | 0.00 | 92 | 1003.9 |
| 20260507022244 | 69 | 262 | 0.0 | 2.0 | 0.00 | 0.01 | 0.00 | 91 | 1003.8 |
| 20260507022144 | 69 | 96 | 0.0 | 2.0 | 0.00 | 0.01 | 0.00 | 91 | 1003.8 |
| 20260507022043 | 69 | 52 | 0.0 | 2.0 | 0.00 | 0.01 | 0.00 | 91 | 1003.9 |
| 20260507021944 | 69 | 52 | 0.0 | 3.0 | 0.00 | 0.01 | 0.00 | 91 | 1003.9 |
| 20260507021844 | 70 | 52 | 0.0 | 3.0 | 0.00 | 0.01 | 0.00 | 91 | 1003.9 |
| 20260507021744 | 70 | 52 | 1.0 | 3.0 | 0.00 | 0.01 | 0.00 | 92 | 1003.8 |
| 20260507021643 | 70 | 59 | 0.0 | 3.0 | 0.00 | 0.01 | 0.00 | 92 | 1003.8 |
| 20260507021543 | 70 | 78 | 0.0 | 3.0 | 0.00 | 0.01 | 0.00 | 92 | 1003.8 |
| 20260507021445 | 70 | 78 | 0.0 | 3.0 | 0.00 | 0.01 | 0.00 | 92 | 1003.7 |
| 20260507021343 | 70 | 78 | 0.0 | 3.0 | 0.00 | 0.01 | 0.00 | 92 | 1003.6 |
| 20260507021244 | 70 | 344 | 0.0 | 3.0 | 0.00 | 0.01 | 0.00 | 91 | 1003.6 |
| 20260507021144 | 70 | 344 | 0.0 | 3.0 | 0.00 | 0.01 | 0.00 | 91 | 1003.6 |
| 20260507021044 | 70 | 0 | 0.0 | 3.0 | 0.00 | 0.01 | 0.00 | 92 | 1003.7 |
| 20260507020943 | 70 | 133 | 0.0 | 2.0 | 0.00 | 0.01 | 0.00 | 92 | 1003.6 |
| 20260507020844 | 70 | 92 | 0.0 | 2.0 | 0.00 | 0.01 | 0.00 | 92 | 1003.6 |
| 20260507020744 | 70 | 75 | 0.0 | 2.0 | 0.00 | 0.01 | 0.00 | 92 | 1003.6 |
| 20260507020644 | 70 | 278 | 0.0 | 2.0 | 0.00 | 0.01 | 0.00 | 92 | 1003.5 |
| 20260507020544 | 70 | 278 | 0.0 | 2.0 | 0.00 | 0.01 | 0.00 | 92 | 1003.6 |
| 20260507020443 | 70 | 278 | 0.0 | 2.0 | 0.00 | 0.01 | 0.00 | 92 | 1003.5 |
| 20260507020342 | 70 | 279 | 0.0 | 2.0 | 0.00 | 0.01 | 0.00 | 92 | 1003.5 |
| 20260507020244 | 70 | 276 | 0.0 | 2.0 | 0.00 | 0.01 | 0.00 | 92 | 1003.5 |
| 20260507020154 | 70 | 68 | 0.0 | 2.0 | 0.00 | 0.01 | 0.00 | 92 | 1003.5 |
| 20260507020043 | 70 | 68 | 0.0 | 3.0 | 0.00 | 0.01 | 0.00 | 92 | 1003.4 |
| 20260507015943 | 70 | 162 | 0.0 | 3.0 | 0.00 | 0.01 | 0.00 | 92 | 1003.5 |
| 20260507015843 | 70 | 45 | 0.0 | 3.0 | 0.00 | 0.01 | 0.00 | 92 | 1003.4 |
| 20260507015742 | 70 | 44 | 0.0 | 3.0 | 0.00 | 0.01 | 0.00 | 92 | 1003.5 |
| 20260507015645 | 70 | 44 | 0.0 | 3.0 | 0.00 | 0.01 | 0.00 | 92 | 1003.4 |
| 20260507015542 | 70 | 44 | 0.0 | 3.0 | 0.00 | 0.01 | 0.00 | 92 | 1003.4 |
| 20260507015442 | 70 | 44 | 0.0 | 3.0 | 0.00 | 0.01 | 0.00 | 92 | 1003.3 |
| 20260507015343 | 70 | 44 | 0.0 | 3.0 | 0.00 | 0.01 | 0.00 | 92 | 1003.3 |
| 20260507015242 | 70 | 25 | 0.0 | 3.0 | 0.00 | 0.01 | 0.00 | 92 | 1003.4 |
| 20260507015146 | 70 | 41 | 0.0 | 3.0 | 0.00 | 0.01 | 0.00 | 91 | 1003.3 |
| 20260507015043 | 70 | 71 | 0.0 | 2.0 | 0.00 | 0.01 | 0.00 | 91 | 1003.2 |
| 20260507014942 | 70 | 71 | 0.0 | 2.0 | 0.00 | 0.01 | 0.00 | 91 | 1003.3 |
| 20260507014844 | 70 | 71 | 0.0 | 2.0 | 0.00 | 0.01 | 0.00 | 91 | 1003.3 |
| 20260507014743 | 70 | 71 | 0.0 | 2.0 | 0.00 | 0.01 | 0.00 | 91 | 1003.3 |
| 20260507014643 | 70 | 71 | 0.0 | 2.0 | 0.00 | 0.01 | 0.00 | 91 | 1003.2 |
| 20260507014542 | 71 | 71 | 0.0 | 3.0 | 0.00 | 0.01 | 0.00 | 91 | 1003.3 |
| 20260507014442 | 71 | 72 | 0.0 | 3.0 | 0.00 | 0.01 | 0.00 | 91 | 1003.2 |
| 20260507014342 | 71 | 0 | 0.0 | 3.0 | 0.00 | 0.01 | 0.00 | 91 | 1003.2 |
| 20260507014244 | 71 | 355 | 0.0 | 3.0 | 0.00 | 0.01 | 0.00 | 92 | 1003.3 |
| 20260507014142 | 71 | 69 | 0.0 | 3.0 | 0.00 | 0.01 | 0.00 | 91 | 1003.1 |
| 20260507014043 | 71 | 65 | 0.0 | 3.0 | 0.00 | 0.01 | 0.00 | 91 | 1003.1 |
| 20260507013942 | 71 | 68 | 0.0 | 3.0 | 0.00 | 0.01 | 0.00 | 91 | 1003.1 |
| 20260507013844 | 71 | 68 | 0.0 | 3.0 | 0.00 | 0.01 | 0.00 | 91 | 1003.1 |
| 20260507013742 | 71 | 68 | 1.0 | 3.0 | 0.00 | 0.01 | 0.00 | 91 | 1003.1 |
| 20260507013642 | 71 | 59 | 1.0 | 3.0 | 0.00 | 0.01 | 0.00 | 91 | 1002.9 |
| 20260507013542 | 71 | 97 | 1.0 | 3.0 | 0.00 | 0.01 | 0.00 | 91 | 1003.1 |
| 20260507013444 | 71 | 130 | 1.0 | 3.0 | 0.00 | 0.01 | 0.00 | 91 | 1002.9 |
| 20260507013343 | 71 | 337 | 1.0 | 3.0 | 0.00 | 0.01 | 0.00 | 91 | 1003.0 |
| 20260507013243 | 71 | 118 | 0.0 | 1.0 | 0.00 | 0.01 | 0.00 | 91 | 1002.8 |
| 20260507013142 | 71 | 123 | 0.0 | 1.0 | 0.00 | 0.01 | 0.00 | 91 | 1002.8 |
| 20260507013053 | 71 | 123 | 0.0 | 1.0 | 0.00 | 0.01 | 0.00 | 91 | 1002.7 |
| 20260507012942 | 71 | 123 | 0.0 | 1.0 | 0.00 | 0.01 | 0.00 | 91 | 1002.8 |
| 20260507012844 | 71 | 123 | 0.0 | 1.0 | 0.00 | 0.01 | 0.00 | 91 | 1002.8 |
| 20260507012743 | 71 | 123 | 0.0 | 1.0 | 0.00 | 0.01 | 0.00 | 91 | 1002.7 |
| 20260507012643 | 71 | 123 | 0.0 | 1.0 | 0.00 | 0.01 | 0.00 | 91 | 1002.8 |
| 20260507012543 | 71 | 123 | 0.0 | 2.0 | 0.00 | 0.01 | 0.00 | 91 | 1002.8 |
| 20260507012432 | 71 | 123 | 0.0 | 2.0 | 0.00 | 0.01 | 0.00 | 91 | 1002.7 |
| 20260507012331 | 71 | 62 | 0.0 | 4.0 | 0.00 | 0.01 | 0.00 | 91 | 1002.8 |
| 20260507012229 | 71 | 62 | 0.0 | 4.0 | 0.00 | 0.01 | 0.00 | 91 | 1002.7 |
| 20260507012126 | 71 | 61 | 0.0 | 4.0 | 0.00 | 0.01 | 0.00 | 91 | 1002.7 |
| 20260507012025 | 71 | 61 | 0.0 | 4.0 | 0.00 | 0.01 | 0.00 | 91 | 1002.7 |
| 20260507011918 | 71 | 134 | 0.0 | 4.0 | 0.00 | 0.01 | 0.00 | 91 | 1002.8 |
| 20260507011811 | 71 | 17 | 0.0 | 4.0 | 0.00 | 0.01 | 0.00 | 91 | 1002.8 |
| 20260507011712 | 71 | 18 | 0.0 | 4.0 | 0.00 | 0.01 | 0.00 | 91 | 1002.7 |
| 20260507011605 | 71 | 18 | 1.0 | 4.0 | 0.00 | 0.01 | 0.00 | 91 | 1002.7 |
| 20260507011504 | 71 | 14 | 1.0 | 4.0 | 0.00 | 0.01 | 0.00 | 91 | 1002.8 |
| 20260507011404 | 71 | 76 | 0.0 | 4.0 | 0.00 | 0.01 | 0.00 | 91 | 1002.7 |
| 20260507011304 | 71 | 75 | 0.0 | 4.0 | 0.00 | 0.01 | 0.00 | 91 | 1002.6 |
| 20260507011203 | 71 | 75 | 0.0 | 4.0 | 0.00 | 0.01 | 0.00 | 91 | 1002.7 |
| 20260507011101 | 71 | 75 | 0.0 | 4.0 | 0.00 | 0.01 | 0.00 | 91 | 1002.7 |
| 20260507011002 | 71 | 75 | 0.0 | 4.0 | 0.00 | 0.01 | 0.00 | 91 | 1002.7 |
| 20260507010902 | 71 | 76 | 0.0 | 4.0 | 0.00 | 0.01 | 0.00 | 91 | 1002.8 |
| 20260507010805 | 72 | 75 | 1.0 | 4.0 | 0.00 | 0.01 | 0.00 | 91 | 1002.7 |
| 20260507010703 | 72 | 169 | 1.0 | 4.0 | 0.00 | 0.01 | 0.00 | 91 | 1002.7 |
| 20260507010602 | 72 | 128 | 0.0 | 3.0 | 0.00 | 0.01 | 0.00 | 91 | 1002.7 |
| 20260507010459 | 72 | 128 | 0.0 | 3.0 | 0.00 | 0.01 | 0.00 | 91 | 1002.6 |
| 20260507010352 | 72 | 128 | 0.0 | 3.0 | 0.00 | 0.01 | 0.00 | 91 | 1002.6 |
| 20260507010250 | 72 | 28 | 0.0 | 2.0 | 0.00 | 0.01 | 0.00 | 91 | 1002.5 |
| 20260507010143 | 72 | 24 | 1.0 | 2.0 | 0.00 | 0.01 | 0.00 | 91 | 1002.6 |
| 20260507010045 | 72 | 39 | 1.0 | 2.0 | 0.00 | 0.01 | 0.00 | 91 | 1002.5 |
| 20260507005941 | 72 | 121 | 0.0 | 2.0 | 0.00 | 0.01 | 0.00 | 91 | 1002.5 |
| 20260507005844 | 72 | 83 | 0.0 | 2.0 | 0.00 | 0.01 | 0.00 | 91 | 1002.5 |
| 20260507005741 | 72 | 78 | 0.0 | 2.0 | 0.00 | 0.01 | 0.00 | 91 | 1002.5 |
| 20260507005643 | 72 | 78 | 0.0 | 2.0 | 0.00 | 0.01 | 0.00 | 91 | 1002.4 |
| 20260507005543 | 72 | 78 | 0.0 | 2.0 | 0.00 | 0.01 | 0.00 | 91 | 1002.5 |
| 20260507005442 | 72 | 78 | 0.0 | 2.0 | 0.00 | 0.01 | 0.00 | 91 | 1002.5 |
| 20260507005341 | 72 | 17 | 0.0 | 2.0 | 0.00 | 0.01 | 0.00 | 91 | 1002.5 |
| 20260507005243 | 72 | 79 | 0.0 | 2.0 | 0.00 | 0.01 | 0.00 | 91 | 1002.4 |
| 20260507005132 | 72 | 79 | 0.0 | 2.0 | 0.00 | 0.01 | 0.00 | 91 | 1002.5 |
| 20260507005031 | 72 | 99 | 0.0 | 2.0 | 0.00 | 0.01 | 0.00 | 91 | 1002.5 |
| 20260507004932 | 72 | 13 | 1.0 | 2.0 | 0.00 | 0.01 | 0.00 | 91 | 1002.4 |
| 20260507004829 | 72 | 102 | 1.0 | 2.0 | 0.00 | 0.01 | 0.00 | 91 | 1002.4 |
| 20260507004720 | 72 | 49 | 0.0 | 2.0 | 0.00 | 0.01 | 0.00 | 91 | 1002.3 |
| 20260507004610 | 72 | 316 | 0.0 | 2.0 | 0.00 | 0.01 | 0.00 | 91 | 1002.3 |
| 20260507004507 | 72 | 316 | 0.0 | 2.0 | 0.00 | 0.01 | 0.00 | 91 | 1002.3 |
| 20260507004405 | 72 | 63 | 1.0 | 2.0 | 0.00 | 0.01 | 0.00 | 91 | 1002.3 |
| 20260507004304 | 73 | 78 | 0.0 | 2.0 | 0.00 | 0.01 | 0.00 | 91 | 1002.3 |
| 20260507004202 | 73 | 85 | 0.0 | 2.0 | 0.00 | 0.01 | 0.00 | 91 | 1002.3 |
| 20260507004103 | 73 | 55 | 0.0 | 2.0 | 0.00 | 0.01 | 0.00 | 91 | 1002.3 |
| 20260507004004 | 73 | 135 | 0.0 | 2.0 | 0.00 | 0.01 | 0.00 | 91 | 1002.3 |
| 20260507003903 | 73 | 107 | 0.0 | 2.0 | 0.00 | 0.01 | 0.00 | 91 | 1002.3 |
| 20260507003802 | 73 | 120 | 0.0 | 2.0 | 0.00 | 0.01 | 0.00 | 91 | 1002.3 |
| 20260507003702 | 73 | 123 | 0.0 | 2.0 | 0.00 | 0.01 | 0.00 | 91 | 1002.2 |
| 20260507003602 | 73 | 124 | 0.0 | 2.0 | 0.00 | 0.01 | 0.00 | 91 | 1002.3 |
| 20260507003503 | 73 | 118 | 0.0 | 2.0 | 0.00 | 0.01 | 0.00 | 91 | 1002.2 |
| 20260507003404 | 73 | 118 | 0.0 | 2.0 | 0.00 | 0.01 | 0.00 | 91 | 1002.2 |
| 20260507003304 | 73 | 118 | 0.0 | 2.0 | 0.00 | 0.01 | 0.00 | 91 | 1002.2 |
| 20260507003204 | 73 | 117 | 0.0 | 2.0 | 0.00 | 0.01 | 0.00 | 91 | 1002.2 |
| 20260507003109 | 73 | 117 | 0.0 | 2.0 | 0.00 | 0.01 | 0.00 | 91 | 1002.1 |
| 20260507003002 | 73 | 90 | 0.0 | 2.0 | 0.00 | 0.01 | 0.00 | 91 | 1002.2 |
| 20260507002902 | 73 | 89 | 1.0 | 2.0 | 0.00 | 0.01 | 0.00 | 91 | 1002.1 |
| 20260507002804 | 73 | 351 | 0.0 | 3.0 | 0.00 | 0.01 | 0.00 | 91 | 1002.1 |
| 20260507002702 | 73 | 0 | 0.0 | 3.0 | 0.00 | 0.01 | 0.00 | 91 | 1002.2 |
| 20260507002606 | 73 | 0 | 0.0 | 3.0 | 0.00 | 0.01 | 0.00 | 91 | 1002.1 |
| 20260507002504 | 73 | 0 | 0.0 | 5.0 | 0.00 | 0.01 | 0.00 | 91 | 1002.1 |
| 20260507002401 | 73 | 0 | 0.0 | 5.0 | 0.00 | 0.01 | 0.00 | 91 | 1002.0 |
| 20260507002306 | 73 | 49 | 0.0 | 5.0 | 0.00 | 0.01 | 0.00 | 91 | 1002.0 |
| 20260507002204 | 73 | 68 | 0.0 | 5.0 | 0.00 | 0.01 | 0.00 | 90 | 1002.0 |
| 20260507002105 | 73 | 71 | 0.0 | 5.0 | 0.00 | 0.01 | 0.00 | 90 | 1002.0 |
| 20260507002003 | 74 | 71 | 1.0 | 5.0 | 0.00 | 0.01 | 0.00 | 90 | 1002.0 |
| 20260507001903 | 74 | 298 | 1.0 | 5.0 | 0.00 | 0.01 | 0.00 | 90 | 1002.0 |
| 20260507001803 | 74 | 298 | 1.0 | 5.0 | 0.00 | 0.01 | 0.00 | 90 | 1001.9 |
| 20260507001702 | 74 | 124 | 2.0 | 5.0 | 0.00 | 0.01 | 0.00 | 90 | 1001.9 |
| 20260507001602 | 74 | 71 | 2.0 | 5.0 | 0.00 | 0.01 | 0.00 | 90 | 1001.9 |
| 20260507001503 | 74 | 114 | 0.0 | 2.0 | 0.00 | 0.01 | 0.00 | 90 | 1001.9 |
| 20260507001404 | 74 | 116 | 0.0 | 2.0 | 0.00 | 0.01 | 0.00 | 90 | 1001.9 |
| 20260507001305 | 74 | 117 | 0.0 | 2.0 | 0.00 | 0.01 | 0.00 | 90 | 1001.8 |
| 20260507001204 | 74 | 116 | 0.0 | 2.0 | 0.00 | 0.01 | 0.00 | 90 | 1001.9 |
| 20260507001103 | 74 | 116 | 0.0 | 2.0 | 0.00 | 0.01 | 0.00 | 90 | 1001.8 |
| 20260507001004 | 74 | 116 | 0.0 | 2.0 | 0.00 | 0.01 | 0.00 | 90 | 1001.8 |
| 20260507000904 | 74 | 116 | 0.0 | 2.0 | 0.00 | 0.01 | 0.00 | 90 | 1001.8 |
| 20260507000802 | 74 | 116 | 0.0 | 3.0 | 0.00 | 0.01 | 0.00 | 90 | 1001.8 |
| 20260507000703 | 74 | 116 | 0.0 | 3.0 | 0.00 | 0.01 | 0.00 | 90 | 1001.8 |
| 20260507000602 | 74 | 109 | 0.0 | 3.0 | 0.00 | 0.01 | 0.00 | 90 | 1001.8 |
| 20260507000502 | 74 | 107 | 0.0 | 3.0 | 0.00 | 0.01 | 0.00 | 90 | 1001.8 |
| 20260507000405 | 74 | 107 | 0.0 | 3.0 | 0.00 | 0.01 | 0.00 | 90 | 1001.7 |
| 20260507000302 | 74 | 107 | 0.0 | 3.0 | 0.00 | 0.01 | 0.00 | 90 | 1001.7 |
| 20260507000204 | 75 | 107 | 0.0 | 3.0 | 0.00 | 0.01 | 0.00 | 90 | 1001.7 |
| 20260507000003 | 75 | 107 | 1.0 | 3.0 | 0.00 | 0.01 | 0.00 | 90 | 1001.7 |
| 20260506235904 | 75 | 104 | 1.0 | 3.0 | 0.00 | 0.01 | 0.00 | 90 | 1001.8 |
| 20260506235803 | 75 | 243 | 0.0 | 1.0 | 0.00 | 0.01 | 0.00 | 89 | 1001.8 |
| 20260506235704 | 75 | 243 | 0.0 | 1.0 | 0.00 | 0.01 | 0.00 | 89 | 1001.8 |
| 20260506235602 | 75 | 243 | 0.0 | 2.0 | 0.00 | 0.01 | 0.00 | 89 | 1001.9 |
| 20260506235504 | 75 | 243 | 0.0 | 3.0 | 0.00 | 0.01 | 0.00 | 89 | 1001.8 |
| 20260506235403 | 75 | 111 | 0.0 | 3.0 | 0.00 | 0.01 | 0.00 | 89 | 1001.9 |
| 20260506235306 | 75 | 109 | 0.0 | 3.0 | 0.00 | 0.01 | 0.00 | 89 | 1001.9 |
| 20260506235208 | 75 | 125 | 0.0 | 3.0 | 0.00 | 0.01 | 0.00 | 89 | 1001.9 |
| 20260506235103 | 75 | 125 | 0.0 | 3.0 | 0.00 | 0.01 | 0.00 | 89 | 1001.9 |
| 20260506235003 | 75 | 125 | 0.0 | 3.0 | 0.00 | 0.01 | 0.00 | 89 | 1001.9 |
| 20260506234903 | 76 | 125 | 0.0 | 3.0 | 0.00 | 0.01 | 0.00 | 89 | 1001.8 |
| 20260506234804 | 76 | 127 | 0.0 | 3.0 | 0.00 | 0.01 | 0.00 | 89 | 1001.8 |
| 20260506234708 | 76 | 124 | 1.0 | 3.0 | 0.00 | 0.01 | 0.00 | 89 | 1001.8 |
| 20260506234603 | 76 | 183 | 0.0 | 3.0 | 0.00 | 0.01 | 0.00 | 89 | 1001.8 |
| 20260506234504 | 76 | 65 | 1.0 | 3.0 | 0.00 | 0.01 | 0.00 | 89 | 1001.8 |
| 20260506234401 | 76 | 61 | 1.0 | 3.0 | 0.00 | 0.01 | 0.00 | 89 | 1001.8 |
| 20260506234303 | 76 | 114 | 1.0 | 3.0 | 0.00 | 0.01 | 0.00 | 89 | 1001.7 |
| 20260506234202 | 76 | 65 | 0.0 | 3.0 | 0.00 | 0.01 | 0.00 | 89 | 1001.7 |
| 20260506234102 | 76 | 63 | 1.0 | 3.0 | 0.00 | 0.01 | 0.00 | 89 | 1001.6 |
| 20260506234004 | 77 | 79 | 1.0 | 3.0 | 0.00 | 0.01 | 0.00 | 89 | 1001.7 |
| 20260506233904 | 77 | 62 | 1.0 | 3.0 | 0.00 | 0.01 | 0.00 | 89 | 1001.7 |
| 20260506233803 | 77 | 164 | 0.0 | 1.0 | 0.00 | 0.01 | 0.00 | 89 | 1001.8 |
| 20260506233703 | 77 | 227 | 0.0 | 1.0 | 0.00 | 0.01 | 0.00 | 89 | 1001.8 |
| 20260506233603 | 77 | 228 | 0.0 | 1.0 | 0.00 | 0.01 | 0.00 | 89 | 1001.8 |
| 20260506233505 | 77 | 151 | 0.0 | 0.0 | 0.00 | 0.01 | 0.00 | 89 | 1001.7 |
| 20260506233404 | 0 | 0.0 | 0.0 | 0.00 | 0.01 | 0.00 | 1001.6 | ||
| 20260506233304 | 0 | 0.0 | 0.0 | 0.00 | 0.01 | 0.00 | 1001.6 | ||
| 20260506233204 | 0 | 0.0 | 0.0 | 0.00 | 0.01 | 0.00 | 1001.6 | ||
| 20260506233105 | 0 | 0.0 | 0.0 | 0.00 | 0.01 | 0.00 | 1001.5 | ||
| 20260506233004 | 0 | 0.0 | 0.0 | 0.00 | 0.01 | 0.00 | 1001.6 | ||
| 20260506232904 | 0 | 0.0 | 0.0 | 0.00 | 0.01 | 0.00 | 1001.5 | ||
| 20260506232803 | 79 | 117 | 1.0 | 3.0 | 0.00 | 0.01 | 0.00 | 89 | 1001.6 |
| 20260506232703 | 79 | 117 | 1.0 | 3.0 | 0.00 | 0.01 | 0.00 | 89 | 1001.6 |
| 20260506232603 | 79 | 117 | 1.0 | 4.0 | 0.00 | 0.01 | 0.00 | 89 | 1001.6 |
| 20260506232504 | 79 | 117 | 1.0 | 4.0 | 0.00 | 0.01 | 0.00 | 89 | 1001.6 |
| 20260506232403 | 79 | 117 | 1.0 | 4.0 | 0.00 | 0.01 | 0.00 | 89 | 1001.5 |
| 20260506232306 | 79 | 117 | 1.0 | 4.0 | 0.00 | 0.01 | 0.00 | 89 | 1001.5 |
| 20260506232204 | 79 | 117 | 1.0 | 4.0 | 0.00 | 0.01 | 0.00 | 89 | 1001.5 |
| 20260506232103 | 79 | 117 | 1.0 | 4.0 | 0.00 | 0.01 | 0.00 | 89 | 1001.5 |
| 20260506232004 | 79 | 117 | 1.0 | 4.0 | 0.00 | 0.01 | 0.00 | 89 | 1001.5 |
| 20260506231904 | 79 | 117 | 1.0 | 4.0 | 0.00 | 0.01 | 0.00 | 89 | 1001.5 |
| 20260506231802 | 79 | 117 | 1.0 | 4.0 | 0.00 | 0.01 | 0.00 | 89 | 1001.4 |
| 20260506231703 | 80 | 326 | 1.0 | 4.0 | 0.00 | 0.01 | 0.00 | 89 | 1001.4 |
| 20260506231603 | 80 | 97 | 0.0 | 3.0 | 0.00 | 0.01 | 0.00 | 89 | 1001.3 |
| 20260506231506 | 80 | 97 | 0.0 | 3.0 | 0.00 | 0.01 | 0.00 | 89 | 1001.4 |
| 20260506231404 | 80 | 97 | 1.0 | 3.0 | 0.00 | 0.01 | 0.00 | 90 | 1001.3 |
| 20260506231303 | 80 | 97 | 1.0 | 7.0 | 0.00 | 0.01 | 0.00 | 90 | 1001.4 |
| 20260506231202 | 80 | 86 | 0.0 | 7.0 | 0.00 | 0.01 | 0.00 | 90 | 1001.3 |
| 20260506231103 | 80 | 341 | 0.0 | 7.0 | 0.00 | 0.01 | 0.00 | 90 | 1001.3 |
| 20260506231002 | 80 | 341 | 0.0 | 7.0 | 0.00 | 0.01 | 0.00 | 90 | 1001.2 |
| 20260506230903 | 80 | 341 | 0.0 | 7.0 | 0.00 | 0.01 | 0.00 | 90 | 1001.3 |
| 20260506230805 | 80 | 341 | 1.0 | 7.0 | 0.00 | 0.01 | 0.00 | 90 | 1001.2 |
| 20260506230702 | 81 | 135 | 1.0 | 7.0 | 0.00 | 0.01 | 0.00 | 90 | 1001.3 |
| 20260506230604 | 81 | 102 | 1.0 | 7.0 | 0.00 | 0.01 | 0.00 | 90 | 1001.1 |
| 20260506230504 | 81 | 327 | 2.0 | 7.0 | 0.00 | 0.01 | 0.00 | 90 | 1001.0 |
| 20260506230402 | 81 | 83 | 2.0 | 7.0 | 0.00 | 0.01 | 0.00 | 90 | 1001.1 |
| 20260506230303 | 81 | 0 | 0.0 | 3.0 | 0.00 | 0.01 | 0.00 | 90 | 1001.0 |
| 20260506230203 | 81 | 0 | 0.0 | 3.0 | 0.00 | 0.01 | 0.00 | 90 | 1001.0 |
| 20260506230005 | 82 | 3 | 1.0 | 2.0 | 0.00 | 0.01 | 0.00 | 91 | 1001.0 |
| 20260506225904 | 82 | 73 | 1.0 | 2.0 | 0.00 | 0.01 | 0.00 | 91 | 1001.0 |
| 20260506225803 | 82 | 341 | 0.0 | 1.0 | 0.00 | 0.01 | 0.00 | 91 | 1001.0 |
| 20260506225702 | 82 | 47 | 0.0 | 1.0 | 0.00 | 0.01 | 0.00 | 90 | 1001.0 |
| 20260506225603 | 82 | 102 | 0.0 | 0.0 | 0.00 | 0.01 | 0.00 | 90 | 1000.9 |
| 20260506225503 | 82 | 103 | 0.0 | 0.0 | 0.00 | 0.01 | 0.00 | 90 | 1001.0 |
| 20260506225402 | 82 | 103 | 0.0 | 0.0 | 0.00 | 0.01 | 0.00 | 90 | 1001.0 |
| 20260506225306 | 82 | 103 | 0.0 | 0.0 | 0.00 | 0.01 | 0.00 | 90 | 1001.0 |
| 20260506225203 | 82 | 103 | 0.0 | 0.0 | 0.00 | 0.01 | 0.00 | 90 | 1001.0 |
| 20260506225103 | 82 | 65 | 0.0 | 0.0 | 0.00 | 0.01 | 0.00 | 90 | 1001.0 |
| 20260506225003 | 82 | 65 | 0.0 | 0.0 | 0.00 | 0.01 | 0.00 | 90 | 1001.0 |
| 20260506224904 | 82 | 65 | 0.0 | 0.0 | 0.00 | 0.01 | 0.00 | 90 | 1001.0 |
| 20260506224802 | 82 | 117 | 0.0 | 0.0 | 0.00 | 0.01 | 0.00 | 90 | 1000.9 |
| 20260506224702 | 82 | 117 | 0.0 | 0.0 | 0.00 | 0.01 | 0.00 | 90 | 1000.9 |
| 20260506224602 | 82 | 117 | 0.0 | 0.0 | 0.00 | 0.01 | 0.00 | 90 | 1000.8 |
| 20260506224503 | 82 | 117 | 0.0 | 0.0 | 0.00 | 0.01 | 0.00 | 90 | 1000.8 |
| 20260506224403 | 83 | 117 | 0.0 | 0.0 | 0.00 | 0.01 | 0.00 | 90 | 1000.8 |
| 20260506224304 | 83 | 117 | 0.0 | 0.0 | 0.00 | 0.01 | 0.00 | 90 | 1000.9 |
| 20260506224202 | 83 | 117 | 0.0 | 0.0 | 0.00 | 0.01 | 0.00 | 90 | 1000.9 |
| 20260506224103 | 83 | 117 | 0.0 | 0.0 | 0.00 | 0.01 | 0.00 | 90 | 1000.9 |
| 20260506224003 | 83 | 117 | 0.0 | 0.0 | 0.00 | 0.01 | 0.00 | 90 | 1000.9 |
| 20260506223904 | 83 | 117 | 0.0 | 0.0 | 0.00 | 0.01 | 0.00 | 90 | 1000.8 |
| 20260506223805 | 83 | 117 | 0.0 | 0.0 | 0.00 | 0.01 | 0.00 | 90 | 1000.8 |
| 20260506223704 | 83 | 117 | 0.0 | 0.0 | 0.00 | 0.01 | 0.00 | 89 | 1000.8 |
| 20260506223604 | 83 | 117 | 0.0 | 0.0 | 0.00 | 0.01 | 0.00 | 89 | 1000.7 |
| 20260506223505 | 83 | 117 | 0.0 | 0.0 | 0.00 | 0.01 | 0.00 | 89 | 1000.7 |
| 20260506223404 | 83 | 117 | 0.0 | 0.0 | 0.00 | 0.01 | 0.00 | 89 | 1000.7 |
| 20260506223302 | 83 | 117 | 0.0 | 0.0 | 0.00 | 0.01 | 0.00 | 89 | 1000.7 |
| 20260506223213 | 83 | 117 | 0.0 | 0.0 | 0.00 | 0.01 | 0.00 | 89 | 1000.7 |
| 20260506223103 | 83 | 117 | 0.0 | 0.0 | 0.00 | 0.01 | 0.00 | 89 | 1000.7 |
| 20260506223004 | 83 | 117 | 0.0 | 0.0 | 0.00 | 0.01 | 0.00 | 89 | 1000.7 |
| 20260506222903 | 83 | 117 | 0.0 | 0.0 | 0.00 | 0.01 | 0.00 | 89 | 1000.7 |
| 20260506222803 | 83 | 117 | 0.0 | 0.0 | 0.00 | 0.01 | 0.00 | 89 | 1000.7 |
| 20260506222706 | 83 | 117 | 0.0 | 0.0 | 0.00 | 0.01 | 0.00 | 89 | 1000.7 |
| 20260506222603 | 83 | 117 | 0.0 | 0.0 | 0.00 | 0.01 | 0.00 | 89 | 1000.7 |
| 20260506222503 | 83 | 117 | 0.0 | 0.0 | 0.00 | 0.01 | 0.00 | 88 | 1000.6 |
| 20260506222404 | 84 | 117 | 0.0 | 0.0 | 0.00 | 0.01 | 0.00 | 88 | 1000.7 |
| 20260506222305 | 84 | 117 | 0.0 | 0.0 | 0.00 | 0.01 | 0.00 | 88 | 1000.6 |
| 20260506222203 | 84 | 117 | 0.0 | 0.0 | 0.00 | 0.01 | 0.00 | 88 | 1000.6 |
| 20260506222102 | 84 | 117 | 0.0 | 0.0 | 0.00 | 0.01 | 0.00 | 88 | 1000.7 |
| 20260506222004 | 84 | 117 | 0.0 | 0.0 | 0.00 | 0.01 | 0.00 | 88 | 1000.7 |
| 20260506221903 | 84 | 117 | 0.0 | 0.0 | 0.00 | 0.01 | 0.00 | 88 | 1000.6 |
| 20260506221803 | 84 | 117 | 0.0 | 0.0 | 0.00 | 0.01 | 0.00 | 88 | 1000.6 |
| 20260506221703 | 84 | 117 | 0.0 | 0.0 | 0.00 | 0.01 | 0.00 | 87 | 1000.6 |
| 20260506221603 | 84 | 117 | 0.0 | 0.0 | 0.00 | 0.01 | 0.00 | 87 | 1000.6 |
| 20260506221504 | 84 | 117 | 0.0 | 0.0 | 0.00 | 0.01 | 0.00 | 87 | 1000.6 |
| 20260506221403 | 84 | 117 | 0.0 | 0.0 | 0.00 | 0.01 | 0.00 | 87 | 1000.5 |
| 20260506221303 | 84 | 117 | 0.0 | 0.0 | 0.00 | 0.01 | 0.00 | 87 | 1000.6 |
| 20260506221204 | 84 | 117 | 0.0 | 0.0 | 0.00 | 0.01 | 0.00 | 86 | 1000.6 |
| 20260506221103 | 84 | 117 | 0.0 | 0.0 | 0.00 | 0.01 | 0.00 | 86 | 1000.5 |
| 20260506221004 | 84 | 117 | 0.0 | 0.0 | 0.00 | 0.01 | 0.00 | 86 | 1000.6 |
| 20260506220904 | 84 | 117 | 0.0 | 0.0 | 0.00 | 0.01 | 0.00 | 86 | 1000.6 |
| 20260506220803 | 84 | 117 | 0.0 | 0.0 | 0.00 | 0.01 | 0.00 | 86 | 1000.6 |
| 20260506220703 | 85 | 117 | 0.0 | 0.0 | 0.00 | 0.01 | 0.00 | 86 | 1000.6 |
| 20260506220604 | 85 | 117 | 0.0 | 0.0 | 0.00 | 0.01 | 0.00 | 86 | 1000.6 |
| 20260506220503 | 85 | 117 | 0.0 | 0.0 | 0.00 | 0.01 | 0.00 | 86 | 1000.6 |
| 20260506220403 | 85 | 117 | 0.0 | 0.0 | 0.00 | 0.01 | 0.00 | 86 | 1000.6 |
| 20260506220314 | 85 | 117 | 0.0 | 0.0 | 0.00 | 0.01 | 0.00 | 85 | 1000.6 |
| 20260506220308 | 85 | 117 | 0.0 | 0.0 | 0.00 | 0.01 | 0.00 | 86 | 1000.6 |
| 20260506220248 | 85 | 117 | 0.0 | 0.0 | 0.00 | 0.01 | 0.00 | 86 | 1000.6 |
| 20260506220229 | 85 | 117 | 0.0 | 0.0 | 0.00 | 0.01 | 0.00 | 85 | 1000.6 |
| 20260506215903 | 85 | 117 | 0.0 | 0.0 | 0.00 | 0.01 | 0.00 | 85 | 1000.6 |
| 20260506215803 | 85 | 117 | 0.0 | 0.0 | 0.00 | 0.01 | 0.00 | 85 | 1000.6 |
| 20260506215704 | 85 | 117 | 0.0 | 0.0 | 0.00 | 0.01 | 0.00 | 85 | 1000.6 |
| 20260506215604 | 85 | 117 | 0.0 | 0.0 | 0.00 | 0.01 | 0.00 | 85 | 1000.6 |
| 20260506215504 | 85 | 117 | 0.0 | 0.0 | 0.00 | 0.01 | 0.00 | 85 | 1000.7 |
| 20260506215405 | 85 | 117 | 0.0 | 0.0 | 0.00 | 0.01 | 0.00 | 85 | 1000.6 |
| 20260506215305 | 85 | 117 | 0.0 | 0.0 | 0.00 | 0.01 | 0.00 | 85 | 1000.6 |
| 20260506215203 | 85 | 117 | 0.0 | 0.0 | 0.00 | 0.01 | 0.00 | 85 | 1000.5 |
| 20260506215103 | 85 | 117 | 0.0 | 0.0 | 0.00 | 0.01 | 0.00 | 85 | 1000.5 |
| 20260506215004 | 85 | 117 | 0.0 | 0.0 | 0.00 | 0.01 | 0.00 | 85 | 1000.6 |
| 20260506214904 | 85 | 117 | 0.0 | 0.0 | 0.00 | 0.01 | 0.00 | 85 | 1000.5 |
| 20260506214804 | 85 | 117 | 0.0 | 0.0 | 0.00 | 0.01 | 0.00 | 85 | 1000.5 |
| 20260506214704 | 85 | 117 | 0.0 | 0.0 | 0.00 | 0.01 | 0.00 | 85 | 1000.5 |
| 20260506214604 | 85 | 117 | 0.0 | 0.0 | 0.00 | 0.01 | 0.00 | 85 | 1000.5 |
| 20260506214503 | 85 | 117 | 0.0 | 0.0 | 0.00 | 0.01 | 0.00 | 85 | 1000.6 |
| 20260506214404 | 85 | 117 | 0.0 | 0.0 | 0.00 | 0.01 | 0.00 | 85 | 1000.5 |
| 20260506214303 | 85 | 117 | 0.0 | 0.0 | 0.00 | 0.01 | 0.00 | 85 | 1000.5 |
| 20260506214203 | 85 | 117 | 0.0 | 0.0 | 0.00 | 0.01 | 0.00 | 85 | 1000.5 |
| 20260506214104 | 85 | 117 | 0.0 | 0.0 | 0.00 | 0.01 | 0.00 | 85 | 1000.5 |
| 20260506214003 | 85 | 117 | 0.0 | 0.0 | 0.00 | 0.01 | 0.00 | 85 | 1000.5 |
| 20260506213904 | 85 | 117 | 0.0 | 0.0 | 0.00 | 0.01 | 0.00 | 85 | 1000.6 |
| 20260506213803 | 85 | 117 | 0.0 | 0.0 | 0.00 | 0.01 | 0.00 | 85 | 1000.6 |
| 20260506213703 | 85 | 117 | 0.0 | 0.0 | 0.00 | 0.01 | 0.00 | 85 | 1000.6 |
| 20260506213602 | 85 | 117 | 0.0 | 0.0 | 0.00 | 0.01 | 0.00 | 85 | 1000.6 |
| 20260506213502 | 85 | 117 | 0.0 | 0.0 | 0.00 | 0.01 | 0.00 | 85 | 1000.6 |
| 20260506213403 | 85 | 117 | 0.0 | 0.0 | 0.00 | 0.01 | 0.00 | 85 | 1000.6 |
| 20260506213303 | 85 | 117 | 0.0 | 0.0 | 0.00 | 0.01 | 0.00 | 85 | 1000.7 |
| 20260506213203 | 85 | 117 | 0.0 | 0.0 | 0.00 | 0.01 | 0.00 | 85 | 1000.6 |
| 20260506213104 | 85 | 117 | 0.0 | 0.0 | 0.00 | 0.01 | 0.00 | 85 | 1000.6 |
| 20260506213003 | 85 | 117 | 0.0 | 0.0 | 0.00 | 0.01 | 0.00 | 85 | 1000.6 |
| 20260506212904 | 85 | 117 | 0.0 | 0.0 | 0.00 | 0.01 | 0.00 | 85 | 1000.6 |
| 20260506212804 | 85 | 117 | 0.0 | 0.0 | 0.00 | 0.01 | 0.00 | 85 | 1000.6 |
| 20260506212703 | 85 | 117 | 0.0 | 0.0 | 0.00 | 0.01 | 0.00 | 85 | 1000.6 |
| 20260506212602 | 85 | 117 | 0.0 | 0.0 | 0.00 | 0.01 | 0.00 | 85 | 1000.6 |
| 20260506212503 | 85 | 117 | 0.0 | 0.0 | 0.00 | 0.01 | 0.00 | 85 | 1000.6 |
| 20260506212403 | 85 | 117 | 0.0 | 0.0 | 0.00 | 0.01 | 0.00 | 85 | 1000.6 |
| 20260506212306 | 85 | 117 | 0.0 | 0.0 | 0.00 | 0.01 | 0.00 | 85 | 1000.6 |
| 20260506212202 | 85 | 117 | 0.0 | 0.0 | 0.00 | 0.01 | 0.00 | 85 | 1000.6 |
| 20260506212104 | 85 | 117 | 0.0 | 0.0 | 0.00 | 0.01 | 0.00 | 85 | 1000.6 |
| 20260506212004 | 85 | 117 | 0.0 | 0.0 | 0.00 | 0.01 | 0.00 | 85 | 1000.6 |
| 20260506211902 | 85 | 117 | 0.0 | 0.0 | 0.00 | 0.01 | 0.00 | 86 | 1000.7 |
| 20260506211802 | 85 | 117 | 0.0 | 0.0 | 0.00 | 0.01 | 0.00 | 86 | 1000.6 |
| 20260506211704 | 85 | 117 | 0.0 | 0.0 | 0.00 | 0.01 | 0.00 | 86 | 1000.6 |
| 20260506211604 | 85 | 117 | 0.0 | 0.0 | 0.00 | 0.01 | 0.00 | 86 | 1000.7 |
| 20260506211503 | 85 | 117 | 0.0 | 0.0 | 0.00 | 0.01 | 0.00 | 86 | 1000.6 |
| 20260506211404 | 85 | 117 | 0.0 | 0.0 | 0.00 | 0.01 | 0.00 | 86 | 1000.6 |
| 20260506211302 | 85 | 117 | 0.0 | 0.0 | 0.00 | 0.01 | 0.00 | 86 | 1000.7 |
| 20260506211203 | 85 | 117 | 0.0 | 0.0 | 0.00 | 0.01 | 0.00 | 86 | 1000.6 |
| 20260506211102 | 85 | 117 | 0.0 | 0.0 | 0.00 | 0.01 | 0.00 | 86 | 1000.6 |
| 20260506211004 | 85 | 117 | 0.0 | 0.0 | 0.00 | 0.01 | 0.00 | 85 | 1000.7 |
| 20260506210902 | 85 | 117 | 0.0 | 0.0 | 0.00 | 0.01 | 0.00 | 86 | 1000.6 |
| 20260506210804 | 85 | 117 | 0.0 | 0.0 | 0.00 | 0.01 | 0.00 | 86 | 1000.6 |
| 20260506210702 | 85 | 117 | 0.0 | 0.0 | 0.00 | 0.01 | 0.00 | 86 | 1000.6 |
| 20260506210602 | 85 | 117 | 0.0 | 0.0 | 0.00 | 0.01 | 0.00 | 86 | 1000.7 |
| 20260506210503 | 85 | 117 | 0.0 | 0.0 | 0.00 | 0.01 | 0.00 | 86 | 1000.6 |
| 20260506210402 | 85 | 117 | 0.0 | 0.0 | 0.00 | 0.01 | 0.00 | 86 | 1000.7 |
| 20260506210302 | 85 | 117 | 0.0 | 0.0 | 0.00 | 0.01 | 0.00 | 86 | 1000.7 |
| 20260506210203 | 85 | 117 | 0.0 | 0.0 | 0.00 | 0.01 | 0.00 | 86 | 1000.7 |
| 20260506210104 | 85 | 117 | 0.0 | 0.0 | 0.00 | 0.01 | 0.00 | 86 | 1000.7 |
| 20260506210005 | 85 | 117 | 0.0 | 0.0 | 0.00 | 0.01 | 0.00 | 86 | 1000.7 |
| 20260506205904 | 85 | 117 | 0.0 | 0.0 | 0.00 | 0.01 | 0.00 | 86 | 1000.6 |
| 20260506205803 | 85 | 117 | 0.0 | 0.0 | 0.00 | 0.01 | 0.00 | 86 | 1000.7 |
| 20260506205712 | 85 | 117 | 0.0 | 0.0 | 0.00 | 0.01 | 0.00 | 86 | 1000.6 |
| 20260506205600 | 85 | 117 | 0.0 | 0.0 | 0.00 | 0.01 | 0.00 | 87 | 1000.7 |
| 20260506205457 | 84 | 117 | 0.0 | 0.0 | 0.00 | 0.01 | 0.00 | 87 | 1000.7 |
| 20260506205352 | 84 | 117 | 0.0 | 0.0 | 0.00 | 0.01 | 0.00 | 87 | 1000.7 |
| 20260506205248 | 84 | 117 | 0.0 | 0.0 | 0.00 | 0.01 | 0.00 | 87 | 1000.8 |
| 20260506205143 | 84 | 117 | 0.0 | 0.0 | 0.00 | 0.01 | 0.00 | 87 | 1000.8 |
| 20260506205038 | 84 | 117 | 0.0 | 0.0 | 0.00 | 0.01 | 0.00 | 87 | 1000.8 |
| 20260506204932 | 84 | 117 | 0.0 | 0.0 | 0.00 | 0.01 | 0.00 | 87 | 1000.9 |
| 20260506204832 | 84 | 111 | 0.0 | 0.0 | 0.00 | 0.01 | 0.00 | 87 | 1000.8 |
| 20260506204732 | 84 | 111 | 0.0 | 0.0 | 0.00 | 0.01 | 0.00 | 87 | 1000.9 |
| 20260506204632 | 84 | 111 | 0.0 | 0.0 | 0.00 | 0.01 | 0.00 | 87 | 1001.0 |
| 20260506204531 | 84 | 111 | 0.0 | 0.0 | 0.00 | 0.01 | 0.00 | 87 | 1000.9 |
| 20260506204433 | 84 | 111 | 0.0 | 0.0 | 0.00 | 0.01 | 0.00 | 87 | 1000.9 |
| 20260506204331 | 84 | 111 | 0.0 | 0.0 | 0.00 | 0.01 | 0.00 | 87 | 1000.9 |
| 20260506204231 | 84 | 111 | 0.0 | 0.0 | 0.00 | 0.01 | 0.00 | 87 | 1001.0 |
| 20260506204132 | 84 | 111 | 0.0 | 0.0 | 0.00 | 0.01 | 0.00 | 88 | 1000.9 |
| 20260506204032 | 84 | 111 | 0.0 | 0.0 | 0.00 | 0.01 | 0.00 | 88 | 1000.9 |
| 20260506203931 | 84 | 111 | 0.0 | 0.0 | 0.00 | 0.01 | 0.00 | 88 | 1000.9 |
| 20260506203832 | 84 | 111 | 0.0 | 0.0 | 0.00 | 0.01 | 0.00 | 88 | 1000.8 |
| 20260506203731 | 84 | 111 | 0.0 | 0.0 | 0.00 | 0.01 | 0.00 | 88 | 1000.8 |
| 20260506203631 | 83 | 118 | 0.0 | 0.0 | 0.00 | 0.01 | 0.00 | 89 | 1000.9 |
| 20260506203533 | 83 | 130 | 0.0 | 0.0 | 0.00 | 0.01 | 0.00 | 89 | 1000.9 |
| 20260506203431 | 83 | 130 | 0.0 | 0.0 | 0.00 | 0.01 | 0.00 | 89 | 1000.9 |
| 20260506203331 | 83 | 117 | 0.0 | 0.0 | 0.00 | 0.01 | 0.00 | 89 | 1000.8 |
| 20260506203231 | 83 | 117 | 0.0 | 0.0 | 0.00 | 0.01 | 0.00 | 89 | 1000.9 |
| 20260506203136 | 83 | 116 | 0.0 | 0.0 | 0.00 | 0.01 | 0.00 | 89 | 1000.9 |
| 20260506203031 | 83 | 114 | 0.0 | 0.0 | 0.00 | 0.01 | 0.00 | 89 | 1000.9 |
| 20260506202930 | 83 | 114 | 0.0 | 0.0 | 0.00 | 0.01 | 0.00 | 89 | 1000.9 |
| 20260506202831 | 83 | 114 | 0.0 | 1.0 | 0.00 | 0.01 | 0.00 | 89 | 1000.9 |
| 20260506202731 | 83 | 114 | 0.0 | 1.0 | 0.00 | 0.01 | 0.00 | 89 | 1000.9 |
| 20260506202634 | 83 | 114 | 0.0 | 1.0 | 0.00 | 0.01 | 0.00 | 89 | 1000.8 |
| 20260506202532 | 83 | 110 | 0.0 | 1.0 | 0.00 | 0.01 | 0.00 | 90 | 1000.9 |
| 20260506202431 | 83 | 110 | 0.0 | 1.0 | 0.00 | 0.01 | 0.00 | 90 | 1000.9 |
| 20260506202331 | 83 | 110 | 0.0 | 2.0 | 0.00 | 0.01 | 0.00 | 90 | 1000.8 |
| 20260506202231 | 83 | 195 | 0.0 | 2.0 | 0.00 | 0.01 | 0.00 | 89 | 1000.9 |
| 20260506202132 | 83 | 199 | 0.0 | 2.0 | 0.00 | 0.01 | 0.00 | 89 | 1000.8 |
| 20260506202031 | 83 | 199 | 0.0 | 2.0 | 0.00 | 0.01 | 0.00 | 89 | 1000.9 |
| 20260506201933 | 82 | 199 | 0.0 | 2.0 | 0.00 | 0.01 | 0.00 | 90 | 1000.9 |
| 20260506201832 | 82 | 73 | 0.0 | 2.0 | 0.00 | 0.01 | 0.00 | 90 | 1000.9 |
| 20260506201732 | 82 | 73 | 0.0 | 3.0 | 0.00 | 0.01 | 0.00 | 90 | 1000.9 |
| 20260506201632 | 82 | 73 | 0.0 | 3.0 | 0.00 | 0.01 | 0.00 | 90 | 1000.9 |
| 20260506201531 | 82 | 73 | 1.0 | 3.0 | 0.00 | 0.01 | 0.00 | 90 | 1000.9 |
| 20260506201429 | 82 | 73 | 0.0 | 3.0 | 0.00 | 0.01 | 0.00 | 90 | 1000.9 |
| 20260506201329 | 82 | 72 | 0.0 | 3.0 | 0.00 | 0.01 | 0.00 | 90 | 1001.0 |
| 20260506201230 | 82 | 72 | 0.0 | 3.0 | 0.00 | 0.01 | 0.00 | 90 | 1001.0 |
| 20260506201131 | 82 | 72 | 0.0 | 3.0 | 0.00 | 0.01 | 0.00 | 90 | 1001.0 |
| 20260506201029 | 82 | 72 | 0.0 | 3.0 | 0.00 | 0.01 | 0.00 | 90 | 1001.0 |
| 20260506200931 | 82 | 72 | 1.0 | 3.0 | 0.00 | 0.01 | 0.00 | 90 | 1001.1 |
| 20260506200831 | 82 | 72 | 1.0 | 3.0 | 0.00 | 0.01 | 0.00 | 91 | 1001.1 |
| 20260506200731 | 82 | 68 | 0.0 | 1.0 | 0.00 | 0.01 | 0.00 | 91 | 1001.0 |
| 20260506200631 | 82 | 68 | 0.0 | 1.0 | 0.00 | 0.01 | 0.00 | 90 | 1001.1 |
| 20260506200530 | 82 | 68 | 0.0 | 1.0 | 0.00 | 0.01 | 0.00 | 90 | 1001.1 |
| 20260506200429 | 82 | 68 | 0.0 | 1.0 | 0.00 | 0.01 | 0.00 | 90 | 1001.1 |
| 20260506200330 | 82 | 68 | 0.0 | 1.0 | 0.00 | 0.01 | 0.00 | 90 | 1001.1 |
| 20260506200230 | 82 | 68 | 0.0 | 1.0 | 0.00 | 0.01 | 0.00 | 90 | 1001.1 |
| 20260506200132 | 82 | 69 | 0.0 | 1.0 | 0.00 | 0.01 | 0.00 | 90 | 1001.1 |
| 20260506200030 | 82 | 68 | 0.0 | 1.0 | 0.00 | 0.01 | 0.00 | 90 | 1001.2 |
| 20260506195929 | 82 | 68 | 0.0 | 1.0 | 0.00 | 0.01 | 0.00 | 90 | 1001.2 |
| 20260506195829 | 82 | 104 | 0.0 | 1.0 | 0.00 | 0.01 | 0.00 | 90 | 1001.1 |
| 20260506195731 | 82 | 107 | 0.0 | 0.0 | 0.00 | 0.01 | 0.00 | 90 | 1001.2 |
| 20260506195629 | 82 | 107 | 0.0 | 0.0 | 0.00 | 0.01 | 0.00 | 90 | 1001.2 |
| 20260506195530 | 82 | 107 | 0.0 | 0.0 | 0.00 | 0.01 | 0.00 | 90 | 1001.3 |
| 20260506195430 | 82 | 109 | 0.0 | 0.0 | 0.00 | 0.01 | 0.00 | 90 | 1001.4 |
| 20260506195330 | 82 | 109 | 0.0 | 0.0 | 0.00 | 0.01 | 0.00 | 90 | 1001.3 |
| 20260506195230 | 82 | 109 | 0.0 | 0.0 | 0.00 | 0.01 | 0.00 | 90 | 1001.3 |
| 20260506195129 | 82 | 109 | 0.0 | 0.0 | 0.00 | 0.01 | 0.00 | 90 | 1001.4 |
| 20260506195030 | 82 | 109 | 0.0 | 0.0 | 0.00 | 0.01 | 0.00 | 90 | 1001.4 |
| 20260506194930 | 82 | 109 | 0.0 | 0.0 | 0.00 | 0.01 | 0.00 | 90 | 1001.5 |
| 20260506194829 | 82 | 109 | 0.0 | 0.0 | 0.00 | 0.01 | 0.00 | 90 | 1001.5 |
| 20260506194729 | 82 | 109 | 0.0 | 0.0 | 0.00 | 0.01 | 0.00 | 90 | 1001.5 |
| 20260506194630 | 82 | 109 | 0.0 | 0.0 | 0.00 | 0.01 | 0.00 | 90 | 1001.5 |
| 20260506194530 | 82 | 109 | 0.0 | 0.0 | 0.00 | 0.01 | 0.00 | 90 | 1001.5 |
| 20260506194429 | 82 | 109 | 0.0 | 0.0 | 0.00 | 0.01 | 0.00 | 90 | 1001.5 |
| 20260506194330 | 82 | 109 | 0.0 | 0.0 | 0.00 | 0.01 | 0.00 | 90 | 1001.5 |
| 20260506194231 | 82 | 109 | 0.0 | 0.0 | 0.00 | 0.01 | 0.00 | 90 | 1001.5 |
| 20260506194129 | 82 | 109 | 0.0 | 0.0 | 0.00 | 0.01 | 0.00 | 90 | 1001.5 |
| 20260506194031 | 82 | 109 | 0.0 | 0.0 | 0.00 | 0.01 | 0.00 | 90 | 1001.6 |
| 20260506193931 | 82 | 109 | 0.0 | 0.0 | 0.00 | 0.01 | 0.00 | 90 | 1001.6 |
| 20260506193831 | 82 | 109 | 0.0 | 0.0 | 0.00 | 0.01 | 0.00 | 90 | 1001.5 |
| 20260506193730 | 82 | 109 | 0.0 | 0.0 | 0.00 | 0.01 | 0.00 | 90 | 1001.6 |
| 20260506193628 | 82 | 109 | 0.0 | 0.0 | 0.00 | 0.01 | 0.00 | 90 | 1001.6 |
| 20260506193533 | 82 | 109 | 0.0 | 0.0 | 0.00 | 0.01 | 0.00 | 90 | 1001.6 |
| 20260506193430 | 82 | 109 | 0.0 | 0.0 | 0.00 | 0.01 | 0.00 | 90 | 1001.6 |
| 20260506193325 | 82 | 109 | 0.0 | 0.0 | 0.00 | 0.01 | 0.00 | 90 | 1001.6 |
| 20260506193223 | 82 | 109 | 0.0 | 0.0 | 0.00 | 0.01 | 0.00 | 90 | 1001.6 |
| 20260506193122 | 82 | 109 | 0.0 | 0.0 | 0.00 | 0.01 | 0.00 | 90 | 1001.6 |
| 20260506193023 | 82 | 109 | 0.0 | 0.0 | 0.00 | 0.01 | 0.00 | 90 | 1001.6 |
| 20260506192915 | 82 | 109 | 0.0 | 0.0 | 0.00 | 0.01 | 0.00 | 90 | 1001.5 |
| 20260506192814 | 82 | 109 | 0.0 | 0.0 | 0.00 | 0.01 | 0.00 | 90 | 1001.6 |
| 20260506192709 | 82 | 109 | 0.0 | 0.0 | 0.00 | 0.01 | 0.00 | 90 | 1001.5 |
| 20260506192604 | 82 | 109 | 0.0 | 0.0 | 0.00 | 0.01 | 0.00 | 90 | 1001.6 |
| 20260506192505 | 82 | 109 | 0.0 | 0.0 | 0.00 | 0.01 | 0.00 | 90 | 1001.6 |
| 20260506192403 | 82 | 109 | 0.0 | 0.0 | 0.00 | 0.01 | 0.00 | 90 | 1001.6 |
| 20260506192305 | 82 | 109 | 0.0 | 0.0 | 0.00 | 0.01 | 0.00 | 90 | 1001.6 |
| 20260506192202 | 82 | 109 | 0.0 | 0.0 | 0.00 | 0.01 | 0.00 | 90 | 1001.6 |
| 20260506192104 | 82 | 109 | 0.0 | 0.0 | 0.00 | 0.01 | 0.00 | 90 | 1001.7 |
| 20260506192002 | 82 | 109 | 0.0 | 0.0 | 0.00 | 0.01 | 0.00 | 90 | 1001.6 |
| 20260506191903 | 82 | 109 | 0.0 | 0.0 | 0.00 | 0.01 | 0.00 | 90 | 1001.6 |
| 20260506191804 | 82 | 103 | 0.0 | 0.0 | 0.00 | 0.01 | 0.00 | 90 | 1001.6 |
| 20260506191703 | 82 | 103 | 0.0 | 0.0 | 0.00 | 0.01 | 0.00 | 90 | 1001.7 |
| 20260506191602 | 82 | 103 | 0.0 | 0.0 | 0.00 | 0.01 | 0.00 | 90 | 1001.7 |
| 20260506191504 | 82 | 103 | 0.0 | 0.0 | 0.00 | 0.01 | 0.00 | 90 | 1001.7 |
| 20260506191402 | 82 | 103 | 0.0 | 1.0 | 0.00 | 0.01 | 0.00 | 90 | 1001.7 |
| 20260506191302 | 82 | 103 | 0.0 | 1.0 | 0.00 | 0.01 | 0.00 | 90 | 1001.7 |
| 20260506191202 | 82 | 103 | 0.0 | 1.0 | 0.00 | 0.01 | 0.00 | 90 | 1001.6 |
| 20260506191102 | 82 | 103 | 0.0 | 1.0 | 0.00 | 0.01 | 0.00 | 90 | 1001.6 |
| 20260506191003 | 82 | 103 | 0.0 | 1.0 | 0.00 | 0.01 | 0.00 | 90 | 1001.6 |
| 20260506190903 | 82 | 114 | 0.0 | 1.0 | 0.00 | 0.01 | 0.00 | 90 | 1001.6 |
| 20260506190802 | 82 | 114 | 0.0 | 1.0 | 0.00 | 0.01 | 0.00 | 90 | 1001.6 |
| 20260506190702 | 82 | 114 | 0.0 | 1.0 | 0.00 | 0.01 | 0.00 | 90 | 1001.6 |
| 20260506190602 | 82 | 114 | 0.0 | 1.0 | 0.00 | 0.01 | 0.00 | 90 | 1001.7 |
| 20260506190504 | 82 | 114 | 0.0 | 2.0 | 0.00 | 0.01 | 0.00 | 91 | 1001.6 |
| 20260506190402 | 82 | 116 | 0.0 | 2.0 | 0.00 | 0.01 | 0.00 | 91 | 1001.7 |
| 20260506190303 | 82 | 116 | 0.0 | 2.0 | 0.00 | 0.01 | 0.00 | 91 | 1001.7 |
| 20260506190206 | 82 | 42 | 0.0 | 2.0 | 0.00 | 0.01 | 0.00 | 91 | 1001.7 |
| 20260506190005 | 82 | 42 | 0.0 | 2.0 | 0.00 | 0.01 | 0.00 | 91 | 1001.6 |
| 20260506185904 | 82 | 28 | 0.0 | 2.0 | 0.00 | 0.01 | 0.00 | 91 | 1001.7 |
| 20260506185803 | 82 | 114 | 0.0 | 2.0 | 0.00 | 0.01 | 0.00 | 91 | 1001.7 |
| 20260506185702 | 82 | 114 | 0.0 | 2.0 | 0.00 | 0.01 | 0.00 | 91 | 1001.7 |
| 20260506185602 | 82 | 114 | 0.0 | 2.0 | 0.00 | 0.01 | 0.00 | 91 | 1001.7 |
| 20260506185503 | 82 | 185 | 0.0 | 0.0 | 0.00 | 0.01 | 0.00 | 92 | 1001.7 |
| 20260506185403 | 82 | 185 | 0.0 | 0.0 | 0.00 | 0.01 | 0.00 | 92 | 1001.7 |
| 20260506185306 | 82 | 185 | 0.0 | 0.0 | 0.00 | 0.01 | 0.00 | 92 | 1001.7 |
| 20260506185203 | 82 | 185 | 0.0 | 0.0 | 0.00 | 0.01 | 0.00 | 92 | 1001.8 |
| 20260506185102 | 82 | 183 | 0.0 | 0.0 | 0.00 | 0.01 | 0.00 | 91 | 1001.8 |
| 20260506185004 | 82 | 185 | 0.0 | 0.0 | 0.00 | 0.01 | 0.00 | 92 | 1001.8 |
| 20260506184904 | 82 | 245 | 0.0 | 0.0 | 0.00 | 0.01 | 0.00 | 92 | 1001.8 |
| 20260506184803 | 82 | 245 | 0.0 | 0.0 | 0.00 | 0.01 | 0.00 | 92 | 1001.8 |
| 20260506184703 | 82 | 245 | 0.0 | 1.0 | 0.00 | 0.01 | 0.00 | 92 | 1001.8 |
| 20260506184602 | 82 | 245 | 0.0 | 1.0 | 0.00 | 0.01 | 0.00 | 92 | 1001.9 |
| 20260506184504 | 81 | 245 | 0.0 | 1.0 | 0.00 | 0.01 | 0.00 | 92 | 1001.8 |
| 20260506184404 | 81 | 247 | 0.0 | 1.0 | 0.00 | 0.01 | 0.00 | 92 | 1001.8 |
| 20260506184304 | 81 | 237 | 0.0 | 1.0 | 0.00 | 0.01 | 0.00 | 92 | 1001.7 |
| 20260506184207 | 81 | 238 | 0.0 | 1.0 | 0.00 | 0.01 | 0.00 | 92 | 1001.8 |
| 20260506184104 | 81 | 238 | 0.0 | 1.0 | 0.00 | 0.01 | 0.00 | 92 | 1001.7 |
| 20260506184004 | 81 | 235 | 0.0 | 1.0 | 0.00 | 0.01 | 0.00 | 92 | 1001.7 |
| 20260506183903 | 81 | 235 | 0.0 | 1.0 | 0.00 | 0.01 | 0.00 | 92 | 1001.8 |
| 20260506183803 | 81 | 247 | 0.0 | 1.0 | 0.00 | 0.01 | 0.00 | 92 | 1001.8 |
| 20260506183705 | 81 | 247 | 0.0 | 1.0 | 0.00 | 0.01 | 0.00 | 92 | 1001.8 |
| 20260506183602 | 81 | 247 | 0.0 | 1.0 | 0.00 | 0.01 | 0.00 | 92 | 1001.8 |
| 20260506183504 | 81 | 248 | 0.0 | 0.0 | 0.00 | 0.01 | 0.00 | 92 | 1001.7 |
| 20260506183403 | 81 | 248 | 0.0 | 0.0 | 0.00 | 0.01 | 0.00 | 92 | 1001.8 |
| 20260506183302 | 81 | 248 | 0.0 | 1.0 | 0.00 | 0.01 | 0.00 | 92 | 1001.8 |
| 20260506183203 | 81 | 250 | 0.0 | 1.0 | 0.00 | 0.01 | 0.00 | 92 | 1001.8 |
| 20260506183102 | 81 | 250 | 0.0 | 1.0 | 0.00 | 0.01 | 0.00 | 92 | 1001.7 |
| 20260506183005 | 81 | 250 | 0.0 | 1.0 | 0.00 | 0.01 | 0.00 | 92 | 1001.8 |
| 20260506182903 | 81 | 250 | 0.0 | 1.0 | 0.00 | 0.01 | 0.00 | 92 | 1001.8 |
| 20260506182804 | 81 | 250 | 0.0 | 1.0 | 0.00 | 0.01 | 0.00 | 92 | 1001.8 |
| 20260506182703 | 81 | 250 | 0.0 | 1.0 | 0.00 | 0.01 | 0.00 | 92 | 1001.8 |
| 20260506182603 | 81 | 250 | 0.0 | 1.0 | 0.00 | 0.01 | 0.00 | 92 | 1001.8 |
| 20260506182503 | 81 | 248 | 0.0 | 1.0 | 0.00 | 0.01 | 0.00 | 92 | 1001.9 |
| 20260506182402 | 81 | 250 | 0.0 | 1.0 | 0.00 | 0.01 | 0.00 | 92 | 1001.9 |
| 20260506182306 | 81 | 224 | 0.0 | 1.0 | 0.00 | 0.01 | 0.00 | 92 | 1001.9 |
| 20260506182203 | 81 | 224 | 0.0 | 1.0 | 0.00 | 0.01 | 0.00 | 92 | 1001.9 |
| 20260506182103 | 81 | 224 | 0.0 | 1.0 | 0.00 | 0.01 | 0.00 | 92 | 1002.0 |
| 20260506182001 | 81 | 224 | 0.0 | 0.0 | 0.00 | 0.01 | 0.00 | 92 | 1002.0 |
| 20260506181904 | 81 | 224 | 0.0 | 0.0 | 0.00 | 0.01 | 0.00 | 92 | 1002.0 |
| 20260506181803 | 81 | 224 | 0.0 | 0.0 | 0.00 | 0.01 | 0.00 | 92 | 1002.0 |
| 20260506181704 | 81 | 224 | 0.0 | 0.0 | 0.00 | 0.01 | 0.00 | 92 | 1002.1 |
| 20260506181601 | 81 | 224 | 0.0 | 0.0 | 0.00 | 0.01 | 0.00 | 92 | 1002.1 |
| 20260506181456 | 81 | 224 | 0.0 | 0.0 | 0.00 | 0.01 | 0.00 | 92 | 1002.1 |
| 20260506181347 | 81 | 224 | 0.0 | 0.0 | 0.00 | 0.01 | 0.00 | 92 | 1002.0 |
| 20260506181244 | 81 | 224 | 0.0 | 0.0 | 0.00 | 0.01 | 0.00 | 92 | 1002.1 |
| 20260506181147 | 81 | 224 | 0.0 | 0.0 | 0.00 | 0.01 | 0.00 | 92 | 1002.2 |
| 20260506181038 | 81 | 224 | 0.0 | 0.0 | 0.00 | 0.01 | 0.00 | 92 | 1002.2 |
| 20260506180931 | 81 | 224 | 0.0 | 0.0 | 0.00 | 0.01 | 0.00 | 92 | 1002.2 |
| 20260506180832 | 81 | 224 | 0.0 | 0.0 | 0.00 | 0.01 | 0.00 | 92 | 1002.2 |
| 20260506180731 | 81 | 224 | 0.0 | 0.0 | 0.00 | 0.01 | 0.00 | 92 | 1002.3 |
| 20260506180634 | 81 | 224 | 0.0 | 0.0 | 0.00 | 0.01 | 0.00 | 92 | 1002.3 |
| 20260506180531 | 81 | 224 | 0.0 | 0.0 | 0.00 | 0.01 | 0.00 | 92 | 1002.3 |
| 20260506180432 | 81 | 224 | 0.0 | 0.0 | 0.00 | 0.01 | 0.00 | 92 | 1002.4 |
| 20260506180332 | 81 | 224 | 0.0 | 0.0 | 0.00 | 0.01 | 0.00 | 92 | 1002.4 |
| 20260506180232 | 81 | 224 | 0.0 | 0.0 | 0.00 | 0.01 | 0.00 | 92 | 1002.5 |
| 20260506180133 | 81 | 224 | 0.0 | 0.0 | 0.00 | 0.01 | 0.00 | 92 | 1002.5 |
| 20260506180029 | 81 | 224 | 0.0 | 0.0 | 0.00 | 0.01 | 0.00 | 92 | 1002.6 |
| 20260506175926 | 81 | 224 | 0.0 | 0.0 | 0.00 | 0.01 | 0.00 | 92 | 1002.6 |
| 20260506175827 | 81 | 224 | 0.0 | 0.0 | 0.00 | 0.01 | 0.00 | 92 | 1002.6 |
| 20260506175727 | 81 | 224 | 0.0 | 0.0 | 0.00 | 0.01 | 0.00 | 92 | 1002.6 |
| 20260506175628 | 81 | 224 | 0.0 | 0.0 | 0.00 | 0.01 | 0.00 | 92 | 1002.7 |
| 20260506175529 | 81 | 224 | 0.0 | 0.0 | 0.00 | 0.01 | 0.00 | 92 | 1002.6 |
| 20260506175427 | 81 | 224 | 0.0 | 0.0 | 0.00 | 0.01 | 0.00 | 92 | 1002.7 |
| 20260506175327 | 81 | 224 | 0.0 | 0.0 | 0.00 | 0.01 | 0.00 | 92 | 1002.7 |
| 20260506175228 | 80 | 224 | 0.0 | 0.0 | 0.00 | 0.01 | 0.00 | 92 | 1002.7 |
| 20260506175129 | 81 | 224 | 0.0 | 0.0 | 0.00 | 0.01 | 0.00 | 92 | 1002.7 |
| 20260506175027 | 81 | 224 | 0.0 | 0.0 | 0.00 | 0.01 | 0.00 | 92 | 1002.7 |
| 20260506174927 | 81 | 224 | 0.0 | 0.0 | 0.00 | 0.01 | 0.00 | 92 | 1002.7 |
| 20260506174827 | 81 | 224 | 0.0 | 0.0 | 0.00 | 0.01 | 0.00 | 92 | 1002.8 |
| 20260506174726 | 81 | 224 | 0.0 | 0.0 | 0.00 | 0.01 | 0.00 | 92 | 1002.7 |
| 20260506174630 | 81 | 224 | 0.0 | 0.0 | 0.00 | 0.01 | 0.00 | 92 | 1002.7 |
| 20260506174527 | 81 | 224 | 0.0 | 0.0 | 0.00 | 0.01 | 0.00 | 92 | 1002.9 |
| 20260506174426 | 81 | 224 | 0.0 | 0.0 | 0.00 | 0.01 | 0.00 | 92 | 1002.8 |
| 20260506174326 | 81 | 224 | 0.0 | 0.0 | 0.00 | 0.01 | 0.00 | 92 | 1002.9 |
| 20260506174226 | 81 | 224 | 0.0 | 0.0 | 0.00 | 0.01 | 0.00 | 92 | 1002.8 |
| 20260506174132 | 81 | 224 | 0.0 | 0.0 | 0.00 | 0.01 | 0.00 | 93 | 1002.9 |
| 20260506174028 | 81 | 224 | 0.0 | 0.0 | 0.00 | 0.01 | 0.00 | 93 | 1002.9 |
| 20260506173927 | 81 | 224 | 0.0 | 0.0 | 0.00 | 0.01 | 0.00 | 93 | 1003.0 |
| 20260506173826 | 81 | 224 | 0.0 | 0.0 | 0.00 | 0.01 | 0.00 | 93 | 1003.0 |
| 20260506173729 | 81 | 224 | 0.0 | 0.0 | 0.00 | 0.01 | 0.00 | 93 | 1003.0 |
| 20260506173627 | 81 | 223 | 0.0 | 0.0 | 0.00 | 0.01 | 0.00 | 93 | 1003.1 |
| 20260506173527 | 81 | 223 | 0.0 | 0.0 | 0.00 | 0.01 | 0.00 | 93 | 1003.0 |
| 20260506173427 | 81 | 223 | 0.0 | 0.0 | 0.00 | 0.01 | 0.00 | 93 | 1003.0 |
| 20260506173327 | 81 | 223 | 0.0 | 0.0 | 0.00 | 0.01 | 0.00 | 93 | 1003.1 |
| 20260506173226 | 81 | 223 | 0.0 | 0.0 | 0.00 | 0.01 | 0.00 | 93 | 1003.2 |
| 20260506173127 | 81 | 223 | 0.0 | 0.0 | 0.00 | 0.01 | 0.00 | 93 | 1003.1 |
| 20260506173027 | 81 | 223 | 0.0 | 0.0 | 0.00 | 0.01 | 0.00 | 95 | 1003.2 |
| 20260506172927 | 81 | 223 | 0.0 | 0.0 | 0.00 | 0.01 | 0.00 | 95 | 1003.1 |
| 20260506172825 | 0 | 0.0 | 0.0 | 0.00 | 0.01 | 0.00 | 1003.1 | ||
| 20260506172726 | 0 | 0.0 | 0.0 | 0.00 | 0.01 | 0.00 | 1003.2 | ||
| 20260506172626 | 0 | 0.0 | 0.0 | 0.00 | 0.01 | 0.00 | 1003.1 | ||
| 20260506172526 | 0 | 0.0 | 0.0 | 0.00 | 0.01 | 0.00 | 1003.2 | ||
| 20260506172426 | 0 | 0.0 | 0.0 | 0.00 | 0.01 | 0.00 | 1003.2 | ||
| 20260506172324 | 0 | 0.0 | 0.0 | 0.00 | 0.01 | 0.00 | 1003.3 | ||
| 20260506172223 | 0 | 0.0 | 0.0 | 0.00 | 0.01 | 0.00 | 1003.3 | ||
| 20260506172124 | 0 | 0.0 | 0.0 | 0.00 | 0.01 | 0.00 | 1003.2 | ||
| 20260506172023 | 0 | 0.0 | 0.0 | 0.00 | 0.01 | 0.00 | 1003.2 | ||
| 20260506171923 | 0 | 0.0 | 0.0 | 0.00 | 0.01 | 0.00 | 1003.2 | ||
| 20260506171822 | 0 | 0.0 | 0.0 | 0.00 | 0.01 | 0.00 | 1003.2 | ||
| 20260506171722 | 0 | 0.0 | 0.0 | 0.00 | 0.01 | 0.00 | 1003.2 | ||
| 20260506171623 | 0 | 0.0 | 0.0 | 0.00 | 0.01 | 0.00 | 1003.3 | ||
| 20260506171522 | 0 | 0.0 | 0.0 | 0.00 | 0.01 | 0.00 | 1003.2 | ||
| 20260506171422 | 0 | 0.0 | 0.0 | 0.00 | 0.01 | 0.00 | 1003.3 | ||
| 20260506171319 | 0 | 0.0 | 0.0 | 0.00 | 0.01 | 0.00 | 1003.2 | ||
| 20260506171219 | 0 | 0.0 | 0.0 | 0.00 | 0.01 | 0.00 | 1003.3 | ||
| 20260506171120 | 0 | 0.0 | 0.0 | 0.00 | 0.01 | 0.00 | 1003.2 | ||
| 20260506171020 | 0 | 0.0 | 0.0 | 0.00 | 0.01 | 0.00 | 1003.2 | ||
| 20260506170919 | 0 | 0.0 | 0.0 | 0.00 | 0.01 | 0.00 | 1003.2 | ||
| 20260506170817 | 0 | 0.0 | 0.0 | 0.00 | 0.01 | 0.00 | 1003.2 | ||
| 20260506170718 | 0 | 0.0 | 0.0 | 0.00 | 0.01 | 0.00 | 1003.2 | ||
| 20260506170618 | 0 | 0.0 | 0.0 | 0.00 | 0.01 | 0.00 | 1003.3 | ||
| 20260506170523 | 0 | 0.0 | 0.0 | 0.00 | 0.01 | 0.00 | 1003.3 | ||
| 20260506170417 | 0 | 0.0 | 0.0 | 0.00 | 0.01 | 0.00 | 1003.3 | ||
| 20260506170316 | 0 | 0.0 | 0.0 | 0.00 | 0.01 | 0.00 | 1003.3 | ||
| 20260506170216 | 0 | 0.0 | 0.0 | 0.00 | 0.01 | 0.00 | 1003.4 | ||
| 20260506170115 | 0 | 0.0 | 0.0 | 0.00 | 0.01 | 0.00 | 1003.3 | ||
| 20260506170016 | 0 | 0.0 | 0.0 | 0.00 | 0.01 | 0.00 | 1003.3 | ||
| 20260506165916 | 0 | 0.0 | 0.0 | 0.00 | 0.01 | 0.00 | 1003.4 | ||
| 20260506165815 | 0 | 0.0 | 0.0 | 0.00 | 0.01 | 0.00 | 1003.2 | ||
| 20260506165715 | 0 | 0.0 | 0.0 | 0.00 | 0.01 | 0.00 | 1003.3 | ||
| 20260506165614 | 0 | 0.0 | 0.0 | 0.00 | 0.01 | 0.00 | 1003.4 | ||
| 20260506165514 | 0 | 0.0 | 0.0 | 0.00 | 0.01 | 0.00 | 1003.4 | ||
| 20260506165415 | 0 | 0.0 | 0.0 | 0.00 | 0.01 | 0.00 | 1003.4 | ||
| 20260506165311 | 0 | 0.0 | 0.0 | 0.00 | 0.01 | 0.00 | 1003.3 | ||
| 20260506165211 | 0 | 0.0 | 0.0 | 0.00 | 0.01 | 0.00 | 1003.3 | ||
| 20260506165111 | 0 | 0.0 | 0.0 | 0.00 | 0.01 | 0.00 | 1003.2 | ||
| 20260506165011 | 0 | 0.0 | 0.0 | 0.00 | 0.01 | 0.00 | 1003.3 | ||
| 20260506164911 | 0 | 0.0 | 0.0 | 0.00 | 0.01 | 0.00 | 1003.3 | ||
| 20260506164809 | 0 | 0.0 | 0.0 | 0.00 | 0.01 | 0.00 | 1003.2 | ||
| 20260506164705 | 80 | 223 | 0.0 | 0.0 | 0.00 | 0.01 | 0.00 | 95 | 1003.3 |
| 20260506164605 | 80 | 223 | 0.0 | 0.0 | 0.00 | 0.01 | 0.00 | 95 | 1003.3 |
| 20260506164503 | 80 | 223 | 0.0 | 0.0 | 0.00 | 0.01 | 0.00 | 95 | 1003.3 |
| 20260506164402 | 80 | 223 | 0.0 | 0.0 | 0.00 | 0.01 | 0.00 | 95 | 1003.2 |
| 20260506164233 | 80 | 223 | 0.0 | 0.0 | 0.00 | 0.01 | 0.00 | 95 | 1003.4 |
| 20260506164132 | 80 | 223 | 0.0 | 0.0 | 0.00 | 0.01 | 0.00 | 95 | 1003.3 |
| 20260506164032 | 80 | 223 | 0.0 | 0.0 | 0.00 | 0.01 | 0.00 | 95 | 1003.4 |
| 20260506163933 | 80 | 223 | 0.0 | 0.0 | 0.00 | 0.01 | 0.00 | 95 | 1003.3 |
| 20260506163832 | 80 | 223 | 0.0 | 0.0 | 0.00 | 0.01 | 0.00 | 95 | 1003.3 |
| 20260506163732 | 80 | 223 | 0.0 | 0.0 | 0.00 | 0.01 | 0.00 | 95 | 1003.3 |
| 20260506163632 | 80 | 223 | 0.0 | 0.0 | 0.00 | 0.01 | 0.00 | 95 | 1003.2 |
| 20260506163533 | 80 | 223 | 0.0 | 0.0 | 0.00 | 0.01 | 0.00 | 95 | 1003.2 |
| 20260506163431 | 80 | 223 | 0.0 | 0.0 | 0.00 | 0.01 | 0.00 | 95 | 1003.2 |
| 20260506163332 | 80 | 223 | 0.0 | 0.0 | 0.00 | 0.01 | 0.00 | 95 | 1003.1 |
| 20260506163231 | 80 | 223 | 0.0 | 0.0 | 0.00 | 0.01 | 0.00 | 95 | 1003.1 |
| 20260506163132 | 80 | 223 | 0.0 | 0.0 | 0.00 | 0.01 | 0.00 | 95 | 1003.1 |
| 20260506163041 | 80 | 223 | 0.0 | 0.0 | 0.00 | 0.01 | 0.00 | 95 | 1003.1 |
| 20260506162935 | 80 | 223 | 0.0 | 1.0 | 0.00 | 0.01 | 0.00 | 95 | 1003.2 |
| 20260506162828 | 80 | 223 | 0.0 | 1.0 | 0.00 | 0.01 | 0.00 | 95 | 1003.1 |
| 20260506162727 | 80 | 227 | 0.0 | 1.0 | 0.00 | 0.01 | 0.00 | 95 | 1003.1 |
| 20260506162624 | 80 | 227 | 0.0 | 1.0 | 0.00 | 0.01 | 0.00 | 96 | 1003.1 |
| 20260506162522 | 80 | 227 | 0.0 | 1.0 | 0.00 | 0.01 | 0.00 | 96 | 1003.1 |
| 20260506162407 | 80 | 227 | 0.0 | 1.0 | 0.00 | 0.01 | 0.00 | 96 | 1003.1 |
| 20260506162307 | 80 | 228 | 0.0 | 1.0 | 0.00 | 0.01 | 0.00 | 96 | 1003.1 |
| 20260506162208 | 80 | 228 | 0.0 | 1.0 | 0.00 | 0.01 | 0.00 | 96 | 1003.1 |
| 20260506162107 | 80 | 227 | 0.0 | 1.0 | 0.00 | 0.01 | 0.00 | 96 | 1003.1 |
| 20260506162005 | 80 | 228 | 0.0 | 1.0 | 0.00 | 0.01 | 0.00 | 96 | 1003.1 |
| 20260506161905 | 80 | 230 | 0.0 | 0.0 | 0.00 | 0.01 | 0.00 | 96 | 1003.0 |
| 20260506161807 | 80 | 230 | 0.0 | 0.0 | 0.00 | 0.01 | 0.00 | 96 | 1003.0 |
| 20260506161706 | 80 | 230 | 0.0 | 0.0 | 0.00 | 0.01 | 0.00 | 96 | 1003.0 |
| 20260506161606 | 80 | 230 | 0.0 | 0.0 | 0.00 | 0.01 | 0.00 | 96 | 1003.0 |
| 20260506161506 | 80 | 230 | 0.0 | 0.0 | 0.00 | 0.01 | 0.00 | 96 | 1002.9 |
| 20260506161407 | 80 | 230 | 0.0 | 0.0 | 0.00 | 0.01 | 0.00 | 96 | 1002.8 |
| 20260506161305 | 80 | 230 | 0.0 | 0.0 | 0.00 | 0.01 | 0.00 | 96 | 1002.9 |
| 20260506161205 | 80 | 230 | 0.0 | 0.0 | 0.00 | 0.01 | 0.00 | 96 | 1002.8 |
| 20260506161106 | 80 | 230 | 0.0 | 0.0 | 0.00 | 0.01 | 0.00 | 96 | 1002.8 |
| 20260506161005 | 79 | 230 | 0.0 | 0.0 | 0.00 | 0.01 | 0.00 | 96 | 1002.8 |
| 20260506160906 | 79 | 230 | 0.0 | 0.0 | 0.00 | 0.01 | 0.00 | 96 | 1002.8 |
| 20260506160805 | 80 | 230 | 0.0 | 0.0 | 0.00 | 0.01 | 0.00 | 96 | 1002.8 |
| 20260506160705 | 79 | 230 | 0.0 | 0.0 | 0.00 | 0.01 | 0.00 | 96 | 1002.8 |
| 20260506160605 | 79 | 230 | 0.0 | 0.0 | 0.00 | 0.01 | 0.00 | 96 | 1002.8 |
| 20260506160505 | 79 | 230 | 0.0 | 0.0 | 0.00 | 0.01 | 0.00 | 96 | 1002.8 |
| 20260506160406 | 79 | 230 | 0.0 | 0.0 | 0.00 | 0.01 | 0.00 | 96 | 1002.8 |
| 20260506160305 | 79 | 230 | 0.0 | 0.0 | 0.00 | 0.01 | 0.00 | 96 | 1002.7 |
| 20260506160205 | 79 | 230 | 0.0 | 0.0 | 0.00 | 0.01 | 0.00 | 96 | 1002.8 |
| 20260506160105 | 79 | 230 | 0.0 | 0.0 | 0.00 | 0.01 | 0.00 | 96 | 1002.8 |
| 20260506160007 | 79 | 230 | 0.0 | 0.0 | 0.00 | 0.01 | 0.00 | 96 | 1002.8 |
| 20260506155908 | 79 | 230 | 0.0 | 0.0 | 0.00 | 0.01 | 0.00 | 96 | 1002.8 |
| 20260506155805 | 79 | 230 | 0.0 | 0.0 | 0.00 | 0.01 | 0.00 | 97 | 1002.8 |
| 20260506155707 | 79 | 230 | 0.0 | 0.0 | 0.00 | 0.01 | 0.00 | 96 | 1002.8 |
| 20260506155605 | 79 | 230 | 0.0 | 0.0 | 0.00 | 0.01 | 0.00 | 96 | 1002.8 |
| 20260506155506 | 79 | 230 | 0.0 | 0.0 | 0.00 | 0.01 | 0.00 | 97 | 1002.7 |
| 20260506155406 | 79 | 230 | 0.0 | 0.0 | 0.00 | 0.01 | 0.00 | 97 | 1002.7 |
| 20260506155306 | 79 | 230 | 0.0 | 0.0 | 0.00 | 0.01 | 0.00 | 97 | 1002.6 |
| 20260506155205 | 79 | 230 | 0.0 | 0.0 | 0.00 | 0.01 | 0.00 | 97 | 1002.5 |
| 20260506155105 | 79 | 230 | 0.0 | 0.0 | 0.00 | 0.01 | 0.00 | 97 | 1002.5 |
| 20260506155006 | 79 | 230 | 0.0 | 0.0 | 0.00 | 0.01 | 0.00 | 97 | 1002.5 |
| 20260506154907 | 79 | 230 | 0.0 | 0.0 | 0.00 | 0.01 | 0.00 | 97 | 1002.5 |
| 20260506154805 | 79 | 230 | 0.0 | 0.0 | 0.00 | 0.01 | 0.00 | 97 | 1002.4 |
| 20260506154707 | 79 | 230 | 0.0 | 0.0 | 0.00 | 0.01 | 0.00 | 97 | 1002.5 |
| 20260506154606 | 79 | 230 | 0.0 | 0.0 | 0.00 | 0.01 | 0.00 | 97 | 1002.5 |
| 20260506154507 | 79 | 230 | 0.0 | 0.0 | 0.00 | 0.01 | 0.00 | 97 | 1002.5 |
| 20260506154406 | 79 | 230 | 0.0 | 0.0 | 0.00 | 0.01 | 0.00 | 97 | 1002.5 |
| 20260506154305 | 79 | 230 | 0.0 | 0.0 | 0.00 | 0.01 | 0.00 | 97 | 1002.5 |
| 20260506154205 | 79 | 230 | 0.0 | 0.0 | 0.00 | 0.01 | 0.00 | 97 | 1002.5 |
| 20260506154104 | 79 | 230 | 0.0 | 0.0 | 0.00 | 0.01 | 0.00 | 97 | 1002.4 |
| 20260506154006 | 79 | 230 | 0.0 | 0.0 | 0.00 | 0.01 | 0.00 | 97 | 1002.5 |
| 20260506153905 | 79 | 230 | 0.0 | 0.0 | 0.00 | 0.01 | 0.00 | 97 | 1002.4 |
| 20260506153805 | 79 | 230 | 0.0 | 0.0 | 0.00 | 0.01 | 0.00 | 97 | 1002.5 |
| 20260506153705 | 79 | 230 | 0.0 | 1.0 | 0.00 | 0.01 | 0.00 | 97 | 1002.5 |
| 20260506153605 | 79 | 231 | 0.0 | 1.0 | 0.00 | 0.01 | 0.00 | 97 | 1002.5 |
| 20260506153505 | 79 | 231 | 0.0 | 1.0 | 0.00 | 0.01 | 0.00 | 97 | 1002.5 |
| 20260506153405 | 79 | 231 | 0.0 | 1.0 | 0.00 | 0.01 | 0.00 | 97 | 1002.6 |
| 20260506153306 | 79 | 231 | 0.0 | 1.0 | 0.00 | 0.01 | 0.00 | 97 | 1002.6 |
| 20260506153204 | 78 | 231 | 0.0 | 1.0 | 0.00 | 0.01 | 0.00 | 97 | 1002.5 |
| 20260506153106 | 78 | 231 | 0.0 | 1.0 | 0.00 | 0.01 | 0.00 | 97 | 1002.5 |
| 20260506153006 | 78 | 231 | 0.0 | 1.0 | 0.00 | 0.01 | 0.00 | 97 | 1002.5 |
| 20260506152904 | 78 | 231 | 0.0 | 1.0 | 0.00 | 0.01 | 0.00 | 97 | 1002.4 |
| 20260506152807 | 78 | 231 | 0.0 | 1.0 | 0.00 | 0.01 | 0.00 | 97 | 1002.4 |
| 20260506152704 | 78 | 227 | 0.0 | 1.0 | 0.00 | 0.01 | 0.00 | 97 | 1002.4 |
| 20260506152609 | 78 | 227 | 0.0 | 1.0 | 0.00 | 0.01 | 0.00 | 97 | 1002.4 |
| 20260506152505 | 78 | 227 | 0.0 | 1.0 | 0.00 | 0.01 | 0.00 | 98 | 1002.4 |
| 20260506152405 | 78 | 227 | 0.0 | 1.0 | 0.00 | 0.01 | 0.00 | 98 | 1002.5 |
| 20260506152306 | 78 | 228 | 0.0 | 1.0 | 0.00 | 0.01 | 0.00 | 98 | 1002.5 |
| 20260506152204 | 78 | 228 | 0.0 | 1.0 | 0.00 | 0.01 | 0.00 | 98 | 1002.5 |
| 20260506152104 | 78 | 228 | 0.0 | 1.0 | 0.00 | 0.01 | 0.00 | 98 | 1002.5 |
| 20260506152004 | 78 | 227 | 0.0 | 0.0 | 0.00 | 0.01 | 0.00 | 98 | 1002.6 |
| 20260506151905 | 78 | 227 | 0.0 | 0.0 | 0.00 | 0.01 | 0.00 | 98 | 1002.6 |
| 20260506151804 | 78 | 227 | 0.0 | 0.0 | 0.00 | 0.01 | 0.00 | 98 | 1002.6 |
| 20260506151704 | 78 | 227 | 0.0 | 0.0 | 0.00 | 0.01 | 0.00 | 98 | 1002.6 |
| 20260506151605 | 78 | 227 | 0.0 | 0.0 | 0.00 | 0.01 | 0.00 | 98 | 1002.6 |
| 20260506151500 | 78 | 227 | 0.0 | 0.0 | 0.00 | 0.01 | 0.00 | 98 | 1002.6 |
| 20260506151356 | 78 | 227 | 0.0 | 0.0 | 0.00 | 0.01 | 0.00 | 98 | 1002.6 |
| 20260506151254 | 78 | 227 | 0.0 | 0.0 | 0.00 | 0.01 | 0.00 | 98 | 1002.7 |
| 20260506151155 | 78 | 227 | 0.0 | 0.0 | 0.00 | 0.01 | 0.00 | 98 | 1002.7 |
| 20260506151048 | 78 | 227 | 0.0 | 0.0 | 0.00 | 0.01 | 0.00 | 98 | 1002.7 |
| 20260506150946 | 78 | 227 | 0.0 | 0.0 | 0.00 | 0.01 | 0.00 | 98 | 1002.7 |
| 20260506150845 | 78 | 227 | 0.0 | 0.0 | 0.00 | 0.01 | 0.00 | 98 | 1002.7 |
| 20260506150732 | 78 | 227 | 0.0 | 0.0 | 0.00 | 0.01 | 0.00 | 98 | 1002.6 |
| 20260506150633 | 78 | 227 | 0.0 | 0.0 | 0.00 | 0.01 | 0.00 | 98 | 1002.6 |
| 20260506150533 | 78 | 227 | 0.0 | 0.0 | 0.00 | 0.01 | 0.00 | 98 | 1002.6 |
| 20260506150431 | 78 | 227 | 0.0 | 0.0 | 0.00 | 0.01 | 0.00 | 98 | 1002.6 |
| 20260506150333 | 78 | 227 | 0.0 | 0.0 | 0.00 | 0.01 | 0.00 | 98 | 1002.5 |
| 20260506150230 | 78 | 227 | 0.0 | 0.0 | 0.00 | 0.01 | 0.00 | 98 | 1002.6 |
| 20260506150126 | 78 | 227 | 0.0 | 0.0 | 0.00 | 0.01 | 0.00 | 98 | 1002.5 |
| 20260506150025 | 78 | 227 | 0.0 | 0.0 | 0.00 | 0.01 | 0.00 | 98 | 1002.5 |
| 20260506145923 | 78 | 227 | 0.0 | 0.0 | 0.00 | 0.01 | 0.00 | 98 | 1002.5 |
| 20260506145815 | 78 | 226 | 0.0 | 0.0 | 0.00 | 0.01 | 0.00 | 98 | 1002.5 |
| 20260506145716 | 78 | 226 | 0.0 | 0.0 | 0.00 | 0.01 | 0.00 | 98 | 1002.4 |
| 20260506145612 | 78 | 226 | 0.0 | 0.0 | 0.00 | 0.01 | 0.00 | 98 | 1002.3 |
| 20260506145510 | 78 | 230 | 0.0 | 0.0 | 0.00 | 0.01 | 0.00 | 98 | 1002.2 |
| 20260506145405 | 78 | 230 | 0.0 | 0.0 | 0.00 | 0.01 | 0.00 | 98 | 1002.2 |
| 20260506145306 | 77 | 230 | 0.0 | 0.0 | 0.00 | 0.01 | 0.00 | 98 | 1002.1 |
| 20260506145210 | 77 | 230 | 0.0 | 0.0 | 0.00 | 0.01 | 0.00 | 98 | 1002.1 |
| 20260506145103 | 77 | 230 | 0.0 | 0.0 | 0.00 | 0.01 | 0.00 | 98 | 1002.1 |
| 20260506145005 | 77 | 230 | 0.0 | 0.0 | 0.00 | 0.01 | 0.00 | 98 | 1002.1 |
| 20260506144903 | 77 | 230 | 0.0 | 0.0 | 0.00 | 0.01 | 0.00 | 98 | 1002.1 |
| 20260506144806 | 77 | 230 | 0.0 | 0.0 | 0.00 | 0.01 | 0.00 | 98 | 1002.1 |
| 20260506144704 | 77 | 230 | 0.0 | 0.0 | 0.00 | 0.01 | 0.00 | 98 | 1002.1 |
| 20260506144604 | 77 | 230 | 0.0 | 0.0 | 0.00 | 0.01 | 0.00 | 98 | 1002.1 |
| 20260506144504 | 77 | 230 | 0.0 | 0.0 | 0.00 | 0.01 | 0.00 | 98 | 1002.2 |
| 20260506144403 | 77 | 231 | 0.0 | 0.0 | 0.00 | 0.01 | 0.00 | 98 | 1002.1 |
| 20260506144304 | 77 | 231 | 0.0 | 1.0 | 0.00 | 0.01 | 0.00 | 98 | 1002.1 |
| 20260506144210 | 77 | 231 | 0.0 | 1.0 | 0.00 | 0.01 | 0.00 | 98 | 1002.1 |
| 20260506144104 | 77 | 231 | 0.0 | 1.0 | 0.00 | 0.01 | 0.00 | 98 | 1002.1 |
| 20260506144005 | 77 | 231 | 0.0 | 1.0 | 0.00 | 0.01 | 0.00 | 98 | 1002.1 |
| 20260506143905 | 77 | 231 | 0.0 | 1.0 | 0.00 | 0.01 | 0.00 | 98 | 1002.0 |
| 20260506143804 | 77 | 228 | 0.0 | 1.0 | 0.00 | 0.01 | 0.00 | 98 | 1002.0 |
| 20260506143710 | 77 | 228 | 0.0 | 1.0 | 0.00 | 0.01 | 0.00 | 98 | 1002.0 |
| 20260506143603 | 77 | 228 | 0.0 | 1.0 | 0.00 | 0.01 | 0.00 | 98 | 1001.9 |
| 20260506143504 | 77 | 228 | 0.0 | 1.0 | 0.00 | 0.01 | 0.00 | 98 | 1002.0 |
| 20260506143406 | 77 | 228 | 0.0 | 1.0 | 0.00 | 0.01 | 0.00 | 98 | 1002.0 |
| 20260506143304 | 77 | 230 | 0.0 | 1.0 | 0.00 | 0.01 | 0.00 | 98 | 1002.1 |
| 20260506143204 | 77 | 230 | 0.0 | 1.0 | 0.00 | 0.01 | 0.00 | 98 | 1002.0 |
| 20260506143103 | 77 | 230 | 0.0 | 1.0 | 0.00 | 0.01 | 0.00 | 98 | 1002.0 |
| 20260506143003 | 77 | 230 | 0.0 | 1.0 | 0.00 | 0.01 | 0.00 | 98 | 1001.9 |
| 20260506142903 | 77 | 230 | 0.0 | 1.0 | 0.00 | 0.01 | 0.00 | 98 | 1001.9 |
| 20260506142805 | 77 | 230 | 0.0 | 1.0 | 0.00 | 0.01 | 0.00 | 98 | 1001.8 |
| 20260506142704 | 77 | 230 | 0.0 | 1.0 | 0.00 | 0.01 | 0.00 | 98 | 1001.8 |
| 20260506142603 | 77 | 230 | 0.0 | 1.0 | 0.00 | 0.01 | 0.00 | 98 | 1001.8 |
| 20260506142505 | 77 | 230 | 0.0 | 1.0 | 0.00 | 0.01 | 0.00 | 98 | 1001.8 |
| 20260506142404 | 77 | 230 | 0.0 | 1.0 | 0.00 | 0.01 | 0.00 | 98 | 1001.8 |
| 20260506142306 | 77 | 230 | 0.0 | 1.0 | 0.00 | 0.01 | 0.00 | 98 | 1001.8 |
| 20260506142203 | 76 | 243 | 0.0 | 0.0 | 0.00 | 0.01 | 0.00 | 98 | 1001.8 |
| 20260506142104 | 77 | 243 | 0.0 | 0.0 | 0.00 | 0.01 | 0.00 | 98 | 1001.8 |
| 20260506142004 | 76 | 243 | 0.0 | 0.0 | 0.00 | 0.01 | 0.00 | 98 | 1001.9 |
| 20260506141902 | 76 | 243 | 0.0 | 1.0 | 0.00 | 0.01 | 0.00 | 98 | 1001.9 |
| 20260506141803 | 76 | 243 | 0.0 | 1.0 | 0.00 | 0.01 | 0.00 | 98 | 1001.8 |
| 20260506141705 | 76 | 243 | 0.0 | 1.0 | 0.00 | 0.01 | 0.00 | 98 | 1001.8 |
| 20260506141605 | 76 | 243 | 0.0 | 1.0 | 0.00 | 0.01 | 0.00 | 98 | 1001.8 |
| 20260506141504 | 76 | 240 | 0.0 | 1.0 | 0.00 | 0.01 | 0.00 | 98 | 1001.8 |
| 20260506141402 | 76 | 240 | 0.0 | 1.0 | 0.00 | 0.01 | 0.00 | 98 | 1001.8 |
| 20260506141302 | 76 | 240 | 0.0 | 1.0 | 0.00 | 0.01 | 0.00 | 98 | 1001.8 |
| 20260506141205 | 76 | 240 | 0.0 | 1.0 | 0.00 | 0.01 | 0.00 | 98 | 1001.8 |
| 20260506141101 | 76 | 240 | 0.0 | 1.0 | 0.00 | 0.01 | 0.00 | 98 | 1001.8 |
| 20260506141003 | 76 | 240 | 0.0 | 1.0 | 0.00 | 0.01 | 0.00 | 98 | 1001.8 |
| 20260506140902 | 76 | 240 | 0.0 | 1.0 | 0.00 | 0.01 | 0.00 | 98 | 1001.8 |
| 20260506140802 | 76 | 240 | 0.0 | 1.0 | 0.00 | 0.01 | 0.00 | 98 | 1001.8 |
| 20260506140700 | 76 | 240 | 0.0 | 1.0 | 0.00 | 0.01 | 0.00 | 98 | 1001.8 |
| 20260506140556 | 76 | 240 | 0.0 | 1.0 | 0.00 | 0.01 | 0.00 | 98 | 1001.9 |
| 20260506140455 | 76 | 240 | 0.0 | 0.0 | 0.00 | 0.01 | 0.00 | 98 | 1001.9 |
| 20260506140348 | 76 | 240 | 0.0 | 0.0 | 0.00 | 0.01 | 0.00 | 98 | 1001.8 |
| 20260506140243 | 76 | 240 | 0.0 | 0.0 | 0.00 | 0.01 | 0.00 | 98 | 1001.9 |
| 20260506140136 | 76 | 240 | 0.0 | 0.0 | 0.00 | 0.01 | 0.00 | 98 | 1001.9 |
| 20260506140031 | 76 | 240 | 0.0 | 0.0 | 0.00 | 0.01 | 0.00 | 98 | 1001.9 |
| 20260506135932 | 76 | 240 | 0.0 | 1.0 | 0.00 | 0.01 | 0.00 | 98 | 1001.9 |
| 20260506135832 | 76 | 240 | 0.0 | 1.0 | 0.00 | 0.01 | 0.00 | 98 | 1001.9 |
| 20260506135733 | 76 | 240 | 0.0 | 1.0 | 0.00 | 0.01 | 0.00 | 98 | 1001.9 |
| 20260506135627 | 76 | 240 | 0.0 | 1.0 | 0.00 | 0.01 | 0.00 | 98 | 1001.8 |
| 20260506135526 | 76 | 240 | 0.0 | 1.0 | 0.00 | 0.01 | 0.00 | 98 | 1001.9 |
| 20260506135420 | 76 | 240 | 0.0 | 1.0 | 0.00 | 0.01 | 0.00 | 98 | 1001.9 |
| 20260506135319 | 76 | 240 | 0.0 | 1.0 | 0.00 | 0.01 | 0.00 | 98 | 1001.9 |
| 20260506135213 | 76 | 240 | 0.0 | 1.0 | 0.00 | 0.01 | 0.00 | 98 | 1001.9 |
| 20260506135111 | 76 | 240 | 0.0 | 1.0 | 0.00 | 0.01 | 0.00 | 98 | 1001.9 |
| 20260506135004 | 76 | 240 | 0.0 | 1.0 | 0.00 | 0.01 | 0.00 | 98 | 1001.9 |
| 20260506134902 | 76 | 240 | 0.0 | 1.0 | 0.00 | 0.01 | 0.00 | 98 | 1001.9 |
| 20260506134802 | 76 | 240 | 0.0 | 1.0 | 0.00 | 0.01 | 0.00 | 98 | 1002.0 |
| 20260506134705 | 76 | 240 | 0.0 | 1.0 | 0.00 | 0.01 | 0.00 | 98 | 1001.9 |
| 20260506134603 | 76 | 240 | 0.0 | 1.0 | 0.00 | 0.01 | 0.00 | 98 | 1001.9 |
| 20260506134502 | 76 | 240 | 0.0 | 1.0 | 0.00 | 0.01 | 0.00 | 98 | 1002.0 |
| 20260506134403 | 75 | 103 | 0.0 | 0.0 | 0.00 | 0.01 | 0.00 | 98 | 1002.0 |
| 20260506134303 | 75 | 103 | 0.0 | 1.0 | 0.00 | 0.01 | 0.00 | 98 | 1002.0 |
| 20260506134202 | 75 | 103 | 0.0 | 2.0 | 0.00 | 0.01 | 0.00 | 98 | 1002.1 |
| 20260506134103 | 75 | 103 | 0.0 | 2.0 | 0.00 | 0.01 | 0.00 | 98 | 1002.0 |
| 20260506134003 | 75 | 103 | 0.0 | 2.0 | 0.00 | 0.01 | 0.00 | 98 | 1002.0 |
| 20260506133903 | 75 | 103 | 0.0 | 2.0 | 0.00 | 0.01 | 0.00 | 98 | 1002.1 |
| 20260506133805 | 75 | 103 | 0.0 | 2.0 | 0.00 | 0.01 | 0.00 | 98 | 1002.1 |
| 20260506133705 | 75 | 103 | 0.0 | 2.0 | 0.00 | 0.01 | 0.00 | 98 | 1002.1 |
| 20260506133602 | 75 | 103 | 0.0 | 2.0 | 0.00 | 0.01 | 0.00 | 98 | 1002.1 |
| 20260506133503 | 75 | 103 | 0.0 | 2.0 | 0.00 | 0.01 | 0.00 | 98 | 1002.0 |
| 20260506133403 | 75 | 103 | 0.0 | 2.0 | 0.00 | 0.01 | 0.00 | 98 | 1002.1 |
| 20260506133303 | 75 | 103 | 0.0 | 2.0 | 0.00 | 0.01 | 0.00 | 98 | 1002.1 |
| 20260506133205 | 75 | 157 | 0.0 | 1.0 | 0.00 | 0.01 | 0.00 | 98 | 1002.1 |
| 20260506133104 | 75 | 157 | 0.0 | 1.0 | 0.00 | 0.01 | 0.00 | 98 | 1002.1 |
| 20260506133002 | 75 | 157 | 0.0 | 1.0 | 0.00 | 0.01 | 0.00 | 98 | 1002.0 |
| 20260506132902 | 75 | 157 | 0.0 | 1.0 | 0.00 | 0.01 | 0.00 | 98 | 1002.1 |
| 20260506132803 | 75 | 157 | 0.0 | 1.0 | 0.00 | 0.01 | 0.00 | 98 | 1002.0 |
| 20260506132702 | 75 | 157 | 0.0 | 1.0 | 0.00 | 0.01 | 0.00 | 98 | 1002.1 |
| 20260506132602 | 75 | 157 | 0.0 | 1.0 | 0.00 | 0.01 | 0.00 | 98 | 1002.0 |
| 20260506132504 | 75 | 157 | 0.0 | 1.0 | 0.00 | 0.01 | 0.00 | 98 | 1002.1 |
| 20260506132402 | 75 | 157 | 0.0 | 1.0 | 0.00 | 0.01 | 0.00 | 98 | 1002.2 |
| 20260506132307 | 75 | 157 | 0.0 | 0.0 | 0.00 | 0.01 | 0.00 | 98 | 1002.2 |
| 20260506132202 | 75 | 157 | 0.0 | 0.0 | 0.00 | 0.01 | 0.00 | 98 | 1002.2 |
| 20260506132103 | 75 | 157 | 0.0 | 0.0 | 0.00 | 0.01 | 0.00 | 98 | 1002.2 |
| 20260506132005 | 75 | 157 | 0.0 | 1.0 | 0.00 | 0.01 | 0.00 | 98 | 1002.2 |
| 20260506131903 | 75 | 157 | 0.0 | 1.0 | 0.00 | 0.01 | 0.00 | 98 | 1002.3 |
| 20260506131803 | 75 | 157 | 0.0 | 1.0 | 0.00 | 0.01 | 0.00 | 98 | 1002.2 |
| 20260506131704 | 75 | 157 | 0.0 | 1.0 | 0.00 | 0.01 | 0.00 | 98 | 1002.2 |
| 20260506131604 | 75 | 157 | 0.0 | 1.0 | 0.00 | 0.01 | 0.00 | 98 | 1002.2 |
| 20260506131505 | 75 | 157 | 0.0 | 1.0 | 0.00 | 0.01 | 0.00 | 98 | 1002.2 |
| 20260506131404 | 75 | 157 | 0.0 | 1.0 | 0.00 | 0.01 | 0.00 | 98 | 1002.1 |
| 20260506131303 | 75 | 157 | 0.0 | 1.0 | 0.00 | 0.01 | 0.00 | 98 | 1002.1 |
| 20260506131203 | 75 | 157 | 0.0 | 1.0 | 0.00 | 0.01 | 0.00 | 98 | 1002.1 |
| 20260506131104 | 75 | 157 | 0.0 | 1.0 | 0.00 | 0.01 | 0.00 | 98 | 1002.1 |
| 20260506131004 | 75 | 155 | 0.0 | 0.0 | 0.00 | 0.01 | 0.00 | 98 | 1002.0 |
| 20260506130902 | 75 | 155 | 0.0 | 0.0 | 0.00 | 0.01 | 0.00 | 98 | 1002.0 |
| 20260506130803 | 75 | 155 | 0.0 | 1.0 | 0.00 | 0.01 | 0.00 | 98 | 1002.0 |
| 20260506130702 | 75 | 155 | 0.0 | 1.0 | 0.00 | 0.01 | 0.00 | 98 | 1002.0 |
| 20260506130604 | 75 | 155 | 0.0 | 1.0 | 0.00 | 0.01 | 0.00 | 98 | 1002.0 |
| 20260506130502 | 75 | 155 | 0.0 | 1.0 | 0.00 | 0.01 | 0.00 | 98 | 1002.0 |
| 20260506130402 | 75 | 155 | 0.0 | 1.0 | 0.00 | 0.01 | 0.00 | 98 | 1002.0 |
| 20260506130303 | 75 | 155 | 0.0 | 1.0 | 0.00 | 0.01 | 0.00 | 98 | 1002.1 |
| 20260506130203 | 75 | 155 | 0.0 | 1.0 | 0.00 | 0.01 | 0.00 | 98 | 1002.1 |
| 20260506130103 | 75 | 155 | 0.0 | 1.0 | 0.00 | 0.01 | 0.00 | 98 | 1002.2 |
| 20260506130004 | 75 | 155 | 0.0 | 1.0 | 0.00 | 0.01 | 0.00 | 98 | 1002.2 |
| 20260506125904 | 75 | 155 | 0.0 | 1.0 | 0.00 | 0.01 | 0.00 | 98 | 1002.1 |
| 20260506125804 | 75 | 155 | 0.0 | 0.0 | 0.00 | 0.01 | 0.00 | 98 | 1002.1 |
| 20260506125702 | 75 | 155 | 0.0 | 0.0 | 0.00 | 0.01 | 0.00 | 98 | 1002.1 |
| 20260506125603 | 75 | 155 | 0.0 | 0.0 | 0.00 | 0.01 | 0.00 | 98 | 1002.2 |
| 20260506125503 | 75 | 155 | 0.0 | 0.0 | 0.00 | 0.01 | 0.00 | 98 | 1002.2 |
| 20260506125402 | 74 | 155 | 0.0 | 0.0 | 0.00 | 0.01 | 0.00 | 98 | 1002.1 |
| 20260506125305 | 75 | 155 | 0.0 | 0.0 | 0.00 | 0.01 | 0.00 | 98 | 1002.1 |
| 20260506125203 | 75 | 155 | 0.0 | 0.0 | 0.00 | 0.01 | 0.00 | 98 | 1002.1 |
| 20260506125102 | 74 | 155 | 0.0 | 0.0 | 0.00 | 0.01 | 0.00 | 98 | 1002.1 |
| 20260506125003 | 74 | 155 | 0.0 | 0.0 | 0.00 | 0.01 | 0.00 | 98 | 1002.0 |
| 20260506124902 | 74 | 155 | 0.0 | 0.0 | 0.00 | 0.01 | 0.00 | 98 | 1002.0 |
| 20260506124802 | 74 | 155 | 0.0 | 0.0 | 0.00 | 0.01 | 0.00 | 98 | 1002.0 |
| 20260506124702 | 74 | 155 | 0.0 | 0.0 | 0.00 | 0.01 | 0.00 | 98 | 1001.9 |
| 20260506124604 | 74 | 155 | 0.0 | 0.0 | 0.00 | 0.01 | 0.00 | 98 | 1001.9 |
| 20260506124504 | 74 | 155 | 0.0 | 0.0 | 0.00 | 0.01 | 0.00 | 98 | 1001.9 |
| 20260506124403 | 74 | 155 | 0.0 | 0.0 | 0.00 | 0.01 | 0.00 | 98 | 1001.9 |
| 20260506124303 | 74 | 155 | 0.0 | 0.0 | 0.00 | 0.01 | 0.00 | 98 | 1001.9 |
| 20260506124202 | 74 | 155 | 0.0 | 0.0 | 0.00 | 0.01 | 0.00 | 98 | 1001.9 |
| 20260506124101 | 74 | 155 | 0.0 | 0.0 | 0.00 | 0.01 | 0.00 | 98 | 1001.8 |
| 20260506124003 | 74 | 155 | 0.0 | 0.0 | 0.00 | 0.01 | 0.00 | 98 | 1001.9 |
| 20260506123902 | 74 | 155 | 0.0 | 0.0 | 0.00 | 0.01 | 0.00 | 98 | 1001.9 |
| 20260506123802 | 74 | 155 | 0.0 | 0.0 | 0.00 | 0.01 | 0.00 | 98 | 1001.8 |
| 20260506123703 | 74 | 155 | 0.0 | 0.0 | 0.00 | 0.01 | 0.00 | 98 | 1001.8 |
| 20260506123603 | 74 | 155 | 0.0 | 0.0 | 0.00 | 0.01 | 0.00 | 98 | 1001.8 |
| 20260506123504 | 74 | 155 | 0.0 | 0.0 | 0.00 | 0.01 | 0.00 | 98 | 1001.8 |
| 20260506123403 | 74 | 155 | 0.0 | 0.0 | 0.00 | 0.01 | 0.00 | 98 | 1001.9 |
| 20260506123303 | 74 | 155 | 0.0 | 0.0 | 0.00 | 0.01 | 0.00 | 98 | 1001.8 |
| 20260506123202 | 74 | 155 | 0.0 | 0.0 | 0.00 | 0.01 | 0.00 | 98 | 1001.8 |
| 20260506123105 | 74 | 155 | 0.0 | 0.0 | 0.00 | 0.01 | 0.00 | 98 | 1001.8 |
| 20260506123003 | 74 | 155 | 0.0 | 0.0 | 0.00 | 0.01 | 0.00 | 98 | 1001.8 |
| 20260506122903 | 74 | 155 | 0.0 | 0.0 | 0.00 | 0.01 | 0.00 | 98 | 1001.8 |
| 20260506122803 | 74 | 155 | 0.0 | 0.0 | 0.00 | 0.01 | 0.00 | 98 | 1001.8 |
| 20260506122702 | 74 | 155 | 0.0 | 0.0 | 0.00 | 0.01 | 0.00 | 98 | 1001.8 |
| 20260506122602 | 74 | 155 | 0.0 | 0.0 | 0.00 | 0.01 | 0.00 | 98 | 1001.7 |
| 20260506122503 | 74 | 155 | 0.0 | 0.0 | 0.00 | 0.01 | 0.00 | 98 | 1001.6 |
| 20260506122402 | 74 | 155 | 0.0 | 0.0 | 0.00 | 0.01 | 0.00 | 98 | 1001.7 |
| 20260506122305 | 74 | 155 | 0.0 | 0.0 | 0.00 | 0.01 | 0.00 | 98 | 1001.7 |
| 20260506122202 | 74 | 155 | 0.0 | 0.0 | 0.00 | 0.01 | 0.00 | 98 | 1001.7 |
| 20260506122102 | 74 | 155 | 0.0 | 0.0 | 0.00 | 0.01 | 0.00 | 98 | 1001.6 |
| 20260506122003 | 74 | 155 | 0.0 | 0.0 | 0.00 | 0.01 | 0.00 | 98 | 1001.6 |
| 20260506121903 | 74 | 155 | 0.0 | 0.0 | 0.00 | 0.01 | 0.00 | 98 | 1001.6 |
| 20260506121803 | 74 | 155 | 0.0 | 0.0 | 0.00 | 0.01 | 0.00 | 98 | 1001.7 |
| 20260506121703 | 74 | 155 | 0.0 | 0.0 | 0.00 | 0.01 | 0.00 | 98 | 1001.7 |
| 20260506121602 | 74 | 155 | 0.0 | 0.0 | 0.00 | 0.01 | 0.00 | 98 | 1001.7 |
| 20260506121502 | 74 | 155 | 0.0 | 0.0 | 0.00 | 0.01 | 0.00 | 98 | 1001.7 |
| 20260506121403 | 74 | 155 | 0.0 | 0.0 | 0.00 | 0.01 | 0.00 | 98 | 1001.7 |
| 20260506121302 | 74 | 155 | 0.0 | 0.0 | 0.00 | 0.01 | 0.00 | 98 | 1001.7 |
| 20260506121202 | 74 | 155 | 0.0 | 0.0 | 0.00 | 0.01 | 0.00 | 98 | 1001.7 |
| 20260506121103 | 74 | 155 | 0.0 | 0.0 | 0.00 | 0.01 | 0.00 | 98 | 1001.7 |
| 20260506121003 | 74 | 155 | 0.0 | 0.0 | 0.00 | 0.01 | 0.00 | 98 | 1001.7 |
| 20260506120902 | 74 | 155 | 0.0 | 0.0 | 0.00 | 0.01 | 0.00 | 98 | 1001.7 |
| 20260506120802 | 74 | 155 | 0.0 | 0.0 | 0.00 | 0.01 | 0.00 | 98 | 1001.8 |
| 20260506120702 | 74 | 155 | 0.0 | 0.0 | 0.00 | 0.01 | 0.00 | 98 | 1001.8 |
| 20260506120602 | 74 | 155 | 0.0 | 0.0 | 0.00 | 0.01 | 0.00 | 98 | 1001.8 |
| 20260506120503 | 74 | 155 | 0.0 | 0.0 | 0.00 | 0.01 | 0.00 | 98 | 1001.7 |
| 20260506120404 | 74 | 155 | 0.0 | 0.0 | 0.00 | 0.01 | 0.00 | 98 | 1001.7 |
| 20260506120303 | 74 | 155 | 0.0 | 0.0 | 0.00 | 0.01 | 0.00 | 98 | 1001.7 |
| 20260506120202 | 74 | 155 | 0.0 | 0.0 | 0.00 | 0.01 | 0.00 | 98 | 1001.8 |
| 20260506120004 | 74 | 155 | 0.0 | 0.0 | 0.00 | 0.01 | 0.00 | 98 | 1001.6 |
| 20260506115903 | 74 | 155 | 0.0 | 0.0 | 0.00 | 0.01 | 0.00 | 98 | 1001.7 |
| 20260506115802 | 74 | 155 | 0.0 | 0.0 | 0.00 | 0.01 | 0.00 | 98 | 1001.6 |
| 20260506115702 | 74 | 155 | 0.0 | 0.0 | 0.00 | 0.01 | 0.00 | 98 | 1001.6 |
| 20260506115602 | 74 | 155 | 0.0 | 0.0 | 0.00 | 0.01 | 0.00 | 98 | 1001.5 |
| 20260506115505 | 74 | 155 | 0.0 | 0.0 | 0.00 | 0.01 | 0.00 | 98 | 1001.6 |
| 20260506115402 | 74 | 155 | 0.0 | 0.0 | 0.00 | 0.01 | 0.00 | 98 | 1001.5 |
| 20260506115306 | 74 | 155 | 0.0 | 0.0 | 0.00 | 0.01 | 0.00 | 98 | 1001.5 |
| 20260506115202 | 74 | 155 | 0.0 | 0.0 | 0.00 | 0.01 | 0.00 | 98 | 1001.5 |
| 20260506115107 | 74 | 155 | 0.0 | 0.0 | 0.00 | 0.01 | 0.00 | 98 | 1001.5 |
| 20260506115004 | 74 | 155 | 0.0 | 0.0 | 0.00 | 0.01 | 0.00 | 98 | 1001.5 |
| 20260506114904 | 74 | 155 | 0.0 | 0.0 | 0.00 | 0.01 | 0.00 | 98 | 1001.6 |
| 20260506114804 | 74 | 155 | 0.0 | 0.0 | 0.00 | 0.01 | 0.00 | 98 | 1001.5 |
| 20260506114703 | 74 | 155 | 0.0 | 0.0 | 0.00 | 0.01 | 0.00 | 98 | 1001.5 |
| 20260506114603 | 74 | 155 | 0.0 | 0.0 | 0.00 | 0.01 | 0.00 | 98 | 1001.5 |
| 20260506114506 | 74 | 155 | 0.0 | 0.0 | 0.00 | 0.01 | 0.00 | 98 | 1001.5 |
| 20260506114404 | 74 | 155 | 0.0 | 0.0 | 0.00 | 0.01 | 0.00 | 98 | 1001.5 |
| 20260506114303 | 74 | 155 | 0.0 | 0.0 | 0.00 | 0.01 | 0.00 | 98 | 1001.4 |
| 20260506114203 | 74 | 155 | 0.0 | 0.0 | 0.00 | 0.01 | 0.00 | 98 | 1001.5 |
| 20260506114102 | 74 | 155 | 0.0 | 0.0 | 0.00 | 0.01 | 0.00 | 98 | 1001.4 |
| 20260506114003 | 74 | 155 | 0.0 | 0.0 | 0.00 | 0.01 | 0.00 | 98 | 1001.4 |
| 20260506113904 | 74 | 155 | 0.0 | 0.0 | 0.00 | 0.01 | 0.00 | 98 | 1001.4 |
| 20260506113804 | 74 | 155 | 0.0 | 0.0 | 0.00 | 0.01 | 0.00 | 98 | 1001.3 |
| 20260506113702 | 74 | 155 | 0.0 | 0.0 | 0.00 | 0.01 | 0.00 | 98 | 1001.3 |
| 20260506113602 | 74 | 155 | 0.0 | 0.0 | 0.00 | 0.01 | 0.00 | 98 | 1001.3 |
| 20260506113502 | 74 | 155 | 0.0 | 0.0 | 0.00 | 0.01 | 0.00 | 98 | 1001.4 |
| 20260506113404 | 74 | 155 | 0.0 | 0.0 | 0.00 | 0.01 | 0.00 | 98 | 1001.4 |
| 20260506113302 | 74 | 155 | 0.0 | 0.0 | 0.00 | 0.01 | 0.00 | 98 | 1001.3 |
| 20260506113206 | 74 | 155 | 0.0 | 0.0 | 0.00 | 0.01 | 0.00 | 98 | 1001.4 |
| 20260506113102 | 74 | 155 | 0.0 | 0.0 | 0.00 | 0.01 | 0.00 | 98 | 1001.4 |
| 20260506113005 | 74 | 155 | 0.0 | 0.0 | 0.00 | 0.01 | 0.00 | 98 | 1001.4 |
| 20260506112902 | 74 | 155 | 0.0 | 0.0 | 0.00 | 0.01 | 0.00 | 98 | 1001.4 |
| 20260506112803 | 74 | 155 | 0.0 | 1.0 | 0.00 | 0.01 | 0.00 | 98 | 1001.5 |
| 20260506112702 | 74 | 155 | 0.0 | 1.0 | 0.00 | 0.01 | 0.00 | 98 | 1001.4 |
| 20260506112602 | 74 | 155 | 0.0 | 1.0 | 0.00 | 0.01 | 0.00 | 98 | 1001.5 |
| 20260506112504 | 74 | 155 | 0.0 | 1.0 | 0.00 | 0.01 | 0.00 | 98 | 1001.5 |
| 20260506112404 | 74 | 155 | 0.0 | 1.0 | 0.00 | 0.01 | 0.00 | 98 | 1001.5 |
| 20260506112305 | 74 | 155 | 0.0 | 1.0 | 0.00 | 0.01 | 0.00 | 98 | 1001.4 |
| 20260506112203 | 74 | 155 | 0.0 | 1.0 | 0.00 | 0.01 | 0.00 | 98 | 1001.5 |
| 20260506112103 | 74 | 155 | 0.0 | 1.0 | 0.00 | 0.01 | 0.00 | 98 | 1001.5 |
| 20260506112003 | 74 | 155 | 0.0 | 1.0 | 0.00 | 0.01 | 0.00 | 98 | 1001.4 |
| 20260506111904 | 74 | 155 | 0.0 | 1.0 | 0.00 | 0.01 | 0.00 | 98 | 1001.4 |
| 20260506111804 | 74 | 157 | 0.0 | 0.0 | 0.00 | 0.01 | 0.00 | 98 | 1001.3 |
| 20260506111701 | 74 | 157 | 0.0 | 0.0 | 0.00 | 0.01 | 0.00 | 98 | 1001.3 |
| 20260506111602 | 74 | 157 | 0.0 | 0.0 | 0.00 | 0.01 | 0.00 | 98 | 1001.4 |
| 20260506111503 | 74 | 157 | 0.0 | 0.0 | 0.00 | 0.01 | 0.00 | 98 | 1001.3 |
| 20260506111403 | 74 | 157 | 0.0 | 0.0 | 0.00 | 0.01 | 0.00 | 98 | 1001.3 |
| 20260506111303 | 74 | 157 | 0.0 | 0.0 | 0.00 | 0.01 | 0.00 | 98 | 1001.3 |
| 20260506111203 | 74 | 157 | 0.0 | 0.0 | 0.00 | 0.01 | 0.00 | 98 | 1001.3 |
| 20260506111104 | 74 | 157 | 0.0 | 0.0 | 0.00 | 0.01 | 0.00 | 98 | 1001.4 |
| 20260506111000 | 74 | 157 | 0.0 | 0.0 | 0.00 | 0.01 | 0.00 | 98 | 1001.4 |
| 20260506110858 | 74 | 157 | 0.0 | 0.0 | 0.00 | 0.01 | 0.00 | 98 | 1001.4 |
| 20260506110800 | 74 | 157 | 0.0 | 0.0 | 0.00 | 0.01 | 0.00 | 98 | 1001.3 |
| 20260506110658 | 74 | 157 | 0.0 | 0.0 | 0.00 | 0.01 | 0.00 | 98 | 1001.3 |
| 20260506110559 | 74 | 157 | 0.0 | 0.0 | 0.00 | 0.01 | 0.00 | 98 | 1001.3 |
| 20260506110500 | 74 | 157 | 0.0 | 0.0 | 0.00 | 0.01 | 0.00 | 98 | 1001.3 |
| 20260506110401 | 74 | 157 | 0.0 | 0.0 | 0.00 | 0.01 | 0.00 | 98 | 1001.3 |
| 20260506110300 | 74 | 157 | 0.0 | 0.0 | 0.00 | 0.01 | 0.00 | 98 | 1001.2 |
| 20260506110159 | 74 | 157 | 0.0 | 0.0 | 0.00 | 0.01 | 0.00 | 98 | 1001.2 |
| 20260506110100 | 74 | 157 | 0.0 | 0.0 | 0.00 | 0.01 | 0.00 | 98 | 1001.2 |
| 20260506105959 | 74 | 157 | 0.0 | 0.0 | 0.00 | 0.01 | 0.00 | 98 | 1001.2 |
| 20260506105859 | 74 | 157 | 0.0 | 0.0 | 0.00 | 0.01 | 0.00 | 98 | 1001.2 |
| 20260506105800 | 74 | 157 | 0.0 | 0.0 | 0.00 | 0.01 | 0.00 | 98 | 1001.1 |
| 20260506105704 | 74 | 155 | 0.0 | 0.0 | 0.00 | 0.01 | 0.00 | 98 | 1001.0 |
| 20260506105559 | 74 | 155 | 0.0 | 0.0 | 0.00 | 0.01 | 0.00 | 98 | 1001.1 |
| 20260506105500 | 74 | 155 | 0.0 | 0.0 | 0.00 | 0.01 | 0.00 | 98 | 1001.0 |
| 20260506105358 | 75 | 155 | 0.0 | 0.0 | 0.00 | 0.01 | 0.00 | 98 | 1000.9 |
| 20260506105258 | 75 | 155 | 0.0 | 0.0 | 0.00 | 0.01 | 0.00 | 98 | 1001.0 |
| 20260506105158 | 74 | 155 | 0.0 | 0.0 | 0.00 | 0.01 | 0.00 | 98 | 1000.9 |
| 20260506105059 | 75 | 155 | 0.0 | 0.0 | 0.00 | 0.01 | 0.00 | 98 | 1000.9 |
| 20260506104958 | 75 | 155 | 0.0 | 0.0 | 0.00 | 0.01 | 0.00 | 98 | 1000.9 |
| 20260506104858 | 75 | 155 | 0.0 | 0.0 | 0.00 | 0.01 | 0.00 | 98 | 1000.9 |
| 20260506104758 | 75 | 155 | 0.0 | 1.0 | 0.00 | 0.01 | 0.00 | 97 | 1000.8 |
| 20260506104658 | 75 | 155 | 0.0 | 1.0 | 0.00 | 0.01 | 0.00 | 97 | 1000.9 |
| 20260506104601 | 75 | 155 | 0.0 | 1.0 | 0.00 | 0.01 | 0.00 | 97 | 1000.8 |
| 20260506104458 | 75 | 155 | 0.0 | 1.0 | 0.00 | 0.01 | 0.00 | 97 | 1000.8 |
| 20260506104359 | 75 | 155 | 0.0 | 1.0 | 0.00 | 0.01 | 0.00 | 97 | 1000.7 |
| 20260506104259 | 75 | 155 | 0.0 | 1.0 | 0.00 | 0.01 | 0.00 | 97 | 1000.7 |
| 20260506104159 | 75 | 155 | 0.0 | 1.0 | 0.00 | 0.01 | 0.00 | 97 | 1000.8 |
| 20260506104058 | 75 | 155 | 0.0 | 1.0 | 0.00 | 0.01 | 0.00 | 97 | 1000.7 |
| 20260506104000 | 75 | 155 | 0.0 | 1.0 | 0.00 | 0.01 | 0.00 | 97 | 1000.7 |
| 20260506103859 | 75 | 155 | 0.0 | 1.0 | 0.00 | 0.01 | 0.00 | 97 | 1000.7 |
| 20260506103758 | 75 | 155 | 0.0 | 1.0 | 0.00 | 0.01 | 0.00 | 97 | 1000.7 |
| 20260506103659 | 75 | 155 | 0.0 | 1.0 | 0.00 | 0.01 | 0.00 | 97 | 1000.6 |
| 20260506103602 | 75 | 155 | 0.0 | 1.0 | 0.00 | 0.01 | 0.00 | 97 | 1000.6 |
| 20260506103459 | 75 | 155 | 0.0 | 1.0 | 0.00 | 0.01 | 0.00 | 97 | 1000.6 |
| 20260506103359 | 75 | 155 | 0.0 | 1.0 | 0.00 | 0.01 | 0.00 | 98 | 1000.6 |
| 20260506103257 | 75 | 155 | 0.0 | 1.0 | 0.00 | 0.01 | 0.00 | 98 | 1000.5 |
| 20260506103200 | 75 | 155 | 0.0 | 1.0 | 0.00 | 0.01 | 0.00 | 97 | 1000.5 |
| 20260506103058 | 75 | 155 | 0.0 | 1.0 | 0.00 | 0.01 | 0.00 | 97 | 1000.5 |
| 20260506103000 | 75 | 155 | 0.0 | 1.0 | 0.00 | 0.01 | 0.00 | 97 | 1000.4 |
| 20260506102857 | 75 | 155 | 0.0 | 1.0 | 0.00 | 0.01 | 0.00 | 97 | 1000.4 |
| 20260506102800 | 75 | 155 | 0.0 | 1.0 | 0.00 | 0.01 | 0.00 | 97 | 1000.4 |
| 20260506102659 | 75 | 155 | 0.0 | 1.0 | 0.00 | 0.01 | 0.00 | 97 | 1000.4 |
| 20260506102558 | 75 | 155 | 0.0 | 1.0 | 0.00 | 0.01 | 0.00 | 98 | 1000.4 |
| 20260506102459 | 75 | 155 | 0.0 | 1.0 | 0.00 | 0.01 | 0.00 | 98 | 1000.5 |
| 20260506102359 | 75 | 155 | 0.0 | 1.0 | 0.00 | 0.01 | 0.00 | 97 | 1000.4 |
| 20260506102258 | 75 | 155 | 0.0 | 1.0 | 0.00 | 0.01 | 0.00 | 97 | 1000.4 |
| 20260506102204 | 75 | 158 | 0.0 | 1.0 | 0.00 | 0.01 | 0.00 | 97 | 1000.5 |
| 20260506102058 | 75 | 257 | 0.0 | 1.0 | 0.00 | 0.01 | 0.00 | 97 | 1000.4 |
| 20260506101958 | 75 | 257 | 0.0 | 2.0 | 0.00 | 0.01 | 0.00 | 97 | 1000.3 |
| 20260506101857 | 75 | 206 | 0.0 | 2.0 | 0.00 | 0.01 | 0.00 | 97 | 1000.4 |
| 20260506101757 | 75 | 207 | 0.0 | 2.0 | 0.00 | 0.01 | 0.00 | 97 | 1000.5 |
| 20260506101657 | 75 | 207 | 0.0 | 2.0 | 0.00 | 0.01 | 0.00 | 97 | 1000.4 |
| 20260506101600 | 75 | 209 | 0.0 | 2.0 | 0.00 | 0.01 | 0.00 | 97 | 1000.5 |
| 20260506101458 | 75 | 209 | 0.0 | 2.0 | 0.00 | 0.01 | 0.00 | 97 | 1000.4 |
| 20260506101357 | 75 | 209 | 0.0 | 3.0 | 0.00 | 0.01 | 0.00 | 97 | 1000.5 |
| 20260506101259 | 75 | 200 | 0.0 | 3.0 | 0.00 | 0.01 | 0.00 | 97 | 1000.5 |
| 20260506101157 | 75 | 200 | 0.0 | 3.0 | 0.00 | 0.01 | 0.00 | 97 | 1000.4 |
| 20260506101057 | 75 | 183 | 0.0 | 3.0 | 0.00 | 0.01 | 0.00 | 97 | 1000.5 |
| 20260506100957 | 75 | 97 | 0.0 | 3.0 | 0.00 | 0.01 | 0.00 | 97 | 1000.5 |
| 20260506100857 | 75 | 243 | 0.0 | 3.0 | 0.00 | 0.01 | 0.00 | 97 | 1000.5 |
| 20260506100759 | 75 | 248 | 0.0 | 3.0 | 0.00 | 0.01 | 0.00 | 97 | 1000.5 |
| 20260506100658 | 75 | 250 | 1.0 | 3.0 | 0.00 | 0.01 | 0.00 | 97 | 1000.5 |
| 20260506100557 | 75 | 212 | 1.0 | 3.0 | 0.00 | 0.01 | 0.00 | 97 | 1000.4 |
| 20260506100458 | 75 | 214 | 1.0 | 3.0 | 0.00 | 0.01 | 0.00 | 97 | 1000.4 |
| 20260506100357 | 75 | 149 | 0.0 | 0.0 | 0.00 | 0.01 | 0.00 | 97 | 1000.5 |
| 20260506100257 | 75 | 149 | 0.0 | 0.0 | 0.00 | 0.01 | 0.00 | 97 | 1000.5 |
| 20260506100157 | 75 | 149 | 0.0 | 0.0 | 0.00 | 0.01 | 0.00 | 97 | 1000.4 |
| 20260506100101 | 75 | 103 | 0.0 | 0.0 | 0.00 | 0.01 | 0.00 | 97 | 1000.5 |
| 20260506095958 | 75 | 103 | 0.0 | 0.0 | 0.00 | 0.01 | 0.00 | 97 | 1000.5 |
| 20260506095857 | 75 | 102 | 0.0 | 0.0 | 0.00 | 0.01 | 0.00 | 97 | 1000.5 |
| 20260506095757 | 75 | 102 | 0.0 | 0.0 | 0.00 | 0.01 | 0.00 | 97 | 1000.5 |
| 20260506095658 | 75 | 92 | 0.0 | 0.0 | 0.00 | 0.01 | 0.00 | 97 | 1000.6 |
| 20260506095559 | 75 | 92 | 0.0 | 0.0 | 0.00 | 0.01 | 0.00 | 97 | 1000.5 |
| 20260506095458 | 75 | 92 | 0.0 | 0.0 | 0.00 | 0.01 | 0.00 | 97 | 1000.5 |
| 20260506095359 | 75 | 73 | 0.0 | 0.0 | 0.00 | 0.01 | 0.00 | 97 | 1000.5 |
| 20260506095258 | 75 | 73 | 0.0 | 0.0 | 0.00 | 0.01 | 0.00 | 97 | 1000.5 |
| 20260506095157 | 75 | 73 | 0.0 | 0.0 | 0.00 | 0.01 | 0.00 | 97 | 1000.5 |
| 20260506095056 | 75 | 54 | 0.0 | 0.0 | 0.00 | 0.01 | 0.00 | 97 | 1000.3 |
| 20260506094954 | 75 | 54 | 0.0 | 0.0 | 0.00 | 0.01 | 0.00 | 97 | 1000.3 |
| 20260506094842 | 75 | 264 | 0.0 | 0.0 | 0.00 | 0.01 | 0.00 | 97 | 1000.4 |
| 20260506094731 | 75 | 282 | 0.0 | 0.0 | 0.00 | 0.01 | 0.00 | 97 | 1000.3 |
| 20260506094632 | 75 | 282 | 0.0 | 0.0 | 0.00 | 0.01 | 0.00 | 97 | 1000.3 |
| 20260506094534 | 75 | 282 | 0.0 | 0.0 | 0.00 | 0.01 | 0.00 | 97 | 1000.2 |
| 20260506094433 | 75 | 206 | 0.0 | 0.0 | 0.00 | 0.01 | 0.00 | 97 | 1000.3 |
| 20260506094332 | 75 | 189 | 0.0 | 0.0 | 0.00 | 0.01 | 0.00 | 97 | 1000.3 |
| 20260506094230 | 75 | 204 | 0.0 | 0.0 | 0.00 | 0.01 | 0.00 | 97 | 1000.2 |
| 20260506094131 | 75 | 252 | 0.0 | 0.0 | 0.00 | 0.01 | 0.00 | 97 | 1000.1 |
| 20260506094032 | 75 | 252 | 0.0 | 0.0 | 0.00 | 0.01 | 0.00 | 97 | 1000.2 |
| 20260506093933 | 75 | 230 | 0.0 | 0.0 | 0.00 | 0.01 | 0.00 | 97 | 1000.1 |
| 20260506093832 | 75 | 227 | 0.0 | 0.0 | 0.00 | 0.01 | 0.00 | 97 | 1000.2 |
| 20260506093734 | 75 | 227 | 0.0 | 0.0 | 0.00 | 0.01 | 0.00 | 97 | 1000.1 |
| 20260506093633 | 75 | 224 | 0.0 | 0.0 | 0.00 | 0.01 | 0.00 | 97 | 1000.1 |
| 20260506093531 | 75 | 224 | 0.0 | 0.0 | 0.00 | 0.01 | 0.00 | 97 | 1000.1 |
| 20260506093431 | 75 | 224 | 0.0 | 0.0 | 0.00 | 0.01 | 0.00 | 97 | 1000.1 |
| 20260506093332 | 75 | 224 | 0.0 | 0.0 | 0.00 | 0.01 | 0.00 | 97 | 1000.1 |
| 20260506093231 | 75 | 224 | 0.0 | 0.0 | 0.00 | 0.01 | 0.00 | 97 | 1000.1 |
| 20260506093131 | 0 | 231 | 0.0 | 0.0 | 0.00 | 0.01 | 0.00 | 1000.0 | |
| 20260506093032 | 0 | 0.0 | 0.0 | 0.00 | 0.01 | 0.00 | 1000.1 | ||
| 20260506092932 | 0 | 0.0 | 0.0 | 0.00 | 0.01 | 0.00 | 1000.0 | ||
| 20260506092832 | 0 | 0.0 | 0.0 | 0.00 | 0.01 | 0.00 | 1000.0 | ||
| 20260506092732 | 0 | 0.0 | 0.0 | 0.00 | 0.01 | 0.00 | 1000.1 | ||
| 20260506092633 | 0 | 0.0 | 0.0 | 0.00 | 0.01 | 0.00 | 1000.0 | ||
| 20260506092505 | 0 | 0.0 | 0.0 | 0.00 | 0.01 | 0.00 | 1000.1 | ||
| 20260506092404 | 75 | 247 | 0.0 | 0.0 | 0.00 | 0.01 | 0.00 | 97 | 1000.1 |
| 20260506092306 | 75 | 247 | 0.0 | 0.0 | 0.00 | 0.01 | 0.00 | 97 | 1000.1 |
| 20260506092204 | 75 | 247 | 0.0 | 0.0 | 0.00 | 0.01 | 0.00 | 97 | 1000.1 |
| 20260506092107 | 75 | 247 | 0.0 | 0.0 | 0.00 | 0.01 | 0.00 | 97 | 1000.1 |
| 20260506092003 | 75 | 247 | 0.0 | 0.0 | 0.00 | 0.01 | 0.00 | 97 | 1000.1 |
| 20260506091903 | 75 | 247 | 0.0 | 0.0 | 0.00 | 0.01 | 0.00 | 97 | 1000.1 |
| 20260506091804 | 75 | 247 | 0.0 | 0.0 | 0.00 | 0.01 | 0.00 | 97 | 1000.1 |
| 20260506091703 | 75 | 247 | 0.0 | 0.0 | 0.00 | 0.01 | 0.00 | 97 | 1000.1 |
| 20260506091603 | 75 | 247 | 0.0 | 0.0 | 0.00 | 0.01 | 0.00 | 97 | 1000.1 |
| 20260506091452 | 75 | 247 | 0.0 | 0.0 | 0.00 | 0.01 | 0.00 | 97 | 1000.1 |
| 20260506091351 | 75 | 247 | 0.0 | 0.0 | 0.00 | 0.01 | 0.00 | 97 | 1000.2 |
| 20260506091251 | 75 | 209 | 0.0 | 0.0 | 0.00 | 0.01 | 0.00 | 97 | 1000.1 |
| 20260506091152 | 75 | 209 | 0.0 | 0.0 | 0.00 | 0.01 | 0.00 | 97 | 1000.1 |
| 20260506091051 | 75 | 209 | 0.0 | 0.0 | 0.00 | 0.01 | 0.00 | 97 | 1000.1 |
| 20260506090952 | 75 | 258 | 0.0 | 0.0 | 0.00 | 0.01 | 0.00 | 97 | 1000.1 |
| 20260506090850 | 75 | 258 | 0.0 | 0.0 | 0.00 | 0.01 | 0.00 | 97 | 1000.2 |
| 20260506090751 | 75 | 235 | 0.0 | 0.0 | 0.00 | 0.01 | 0.00 | 97 | 1000.2 |
| 20260506090652 | 75 | 235 | 0.0 | 0.0 | 0.00 | 0.01 | 0.00 | 97 | 1000.2 |
| 20260506090551 | 75 | 233 | 0.0 | 0.0 | 0.00 | 0.01 | 0.00 | 97 | 1000.2 |
| 20260506090451 | 75 | 233 | 0.0 | 0.0 | 0.00 | 0.01 | 0.00 | 97 | 1000.2 |
| 20260506090351 | 75 | 233 | 0.0 | 0.0 | 0.00 | 0.01 | 0.00 | 97 | 1000.2 |
| 20260506090251 | 75 | 233 | 0.0 | 0.0 | 0.00 | 0.01 | 0.00 | 97 | 1000.1 |
| 20260506090151 | 75 | 231 | 0.0 | 0.0 | 0.00 | 0.01 | 0.00 | 97 | 1000.1 |
| 20260506090051 | 75 | 243 | 0.0 | 0.0 | 0.00 | 0.01 | 0.00 | 97 | 1000.1 |
| 20260506085950 | 75 | 243 | 0.0 | 0.0 | 0.00 | 0.01 | 0.00 | 97 | 1000.1 |
| 20260506085851 | 75 | 243 | 0.0 | 0.0 | 0.00 | 0.01 | 0.00 | 97 | 1000.1 |
| 20260506085750 | 75 | 243 | 0.0 | 0.0 | 0.00 | 0.01 | 0.00 | 97 | 1000.1 |
| 20260506085655 | 75 | 243 | 0.0 | 2.0 | 0.00 | 0.01 | 0.00 | 97 | 1000.0 |
| 20260506085550 | 75 | 241 | 0.0 | 2.0 | 0.00 | 0.01 | 0.00 | 97 | 1000.0 |
| 20260506085450 | 75 | 241 | 0.0 | 2.0 | 0.00 | 0.01 | 0.00 | 97 | 1000.0 |
| 20260506085351 | 75 | 288 | 0.0 | 2.0 | 0.00 | 0.01 | 0.00 | 97 | 1000.1 |
| 20260506085250 | 76 | 288 | 0.0 | 2.0 | 0.00 | 0.01 | 0.00 | 97 | 1000.0 |
| 20260506085151 | 76 | 216 | 0.0 | 2.0 | 0.00 | 0.01 | 0.00 | 97 | 1000.1 |
| 20260506085050 | 76 | 216 | 0.0 | 2.0 | 0.00 | 0.01 | 0.00 | 97 | 1000.0 |
| 20260506084952 | 76 | 216 | 0.0 | 2.0 | 0.00 | 0.01 | 0.00 | 97 | 1000.0 |
| 20260506084850 | 76 | 243 | 0.0 | 2.0 | 0.00 | 0.01 | 0.00 | 97 | 1000.0 |
| 20260506084752 | 76 | 183 | 1.0 | 2.0 | 0.00 | 0.01 | 0.00 | 97 | 1000.1 |
| 20260506084650 | 76 | 227 | 1.0 | 2.0 | 0.00 | 0.01 | 0.00 | 97 | 1000.1 |
| 20260506084550 | 76 | 268 | 0.0 | 2.0 | 0.00 | 0.01 | 0.00 | 97 | 1000.0 |
| 20260506084450 | 76 | 283 | 0.0 | 2.0 | 0.00 | 0.01 | 0.00 | 97 | 1000.0 |
| 20260506084350 | 76 | 283 | 0.0 | 2.0 | 0.00 | 0.01 | 0.00 | 97 | 1000.1 |
| 20260506084253 | 76 | 248 | 0.0 | 2.0 | 0.00 | 0.01 | 0.00 | 97 | 1000.0 |
| 20260506084152 | 76 | 226 | 0.0 | 2.0 | 0.00 | 0.01 | 0.00 | 97 | 1000.0 |
| 20260506084058 | 76 | 226 | 0.0 | 2.0 | 0.00 | 0.01 | 0.00 | 96 | 1000.0 |
| 20260506083951 | 76 | 234 | 0.0 | 2.0 | 0.00 | 0.01 | 0.00 | 96 | 1000.0 |
| 20260506083851 | 76 | 299 | 0.0 | 2.0 | 0.00 | 0.01 | 0.00 | 96 | 1000.0 |
| 20260506083751 | 76 | 299 | 0.0 | 2.0 | 0.00 | 0.01 | 0.00 | 96 | 999.9 |
| 20260506083650 | 76 | 254 | 0.0 | 0.0 | 0.00 | 0.01 | 0.00 | 96 | 1000.0 |
| 20260506083552 | 76 | 254 | 0.0 | 0.0 | 0.00 | 0.01 | 0.00 | 96 | 999.9 |
| 20260506083450 | 76 | 254 | 0.0 | 0.0 | 0.00 | 0.01 | 0.00 | 96 | 1000.0 |
| 20260506083352 | 76 | 254 | 0.0 | 0.0 | 0.00 | 0.01 | 0.00 | 96 | 1000.0 |
| 20260506083251 | 76 | 254 | 0.0 | 0.0 | 0.00 | 0.01 | 0.00 | 96 | 1000.1 |
| 20260506083152 | 76 | 254 | 0.0 | 0.0 | 0.00 | 0.01 | 0.00 | 96 | 1000.1 |
| 20260506083051 | 76 | 252 | 0.0 | 0.0 | 0.00 | 0.01 | 0.00 | 96 | 1000.1 |
| 20260506082949 | 76 | 252 | 0.0 | 0.0 | 0.00 | 0.01 | 0.00 | 96 | 1000.3 |
| 20260506082850 | 76 | 199 | 0.0 | 0.0 | 0.00 | 0.01 | 0.00 | 97 | 1000.2 |
| 20260506082751 | 76 | 199 | 0.0 | 1.0 | 0.00 | 0.01 | 0.00 | 97 | 1000.2 |
| 20260506082651 | 76 | 199 | 0.0 | 1.0 | 0.00 | 0.01 | 0.00 | 97 | 1000.2 |
| 20260506082551 | 76 | 162 | 0.0 | 1.0 | 0.00 | 0.01 | 0.00 | 97 | 1000.3 |
| 20260506082451 | 76 | 162 | 0.0 | 1.0 | 0.00 | 0.01 | 0.00 | 97 | 1000.3 |
| 20260506082350 | 76 | 162 | 0.0 | 1.0 | 0.00 | 0.01 | 0.00 | 97 | 1000.2 |
| 20260506082252 | 76 | 192 | 0.0 | 1.0 | 0.00 | 0.01 | 0.00 | 97 | 1000.2 |
| 20260506082153 | 76 | 192 | 0.0 | 1.0 | 0.00 | 0.01 | 0.00 | 97 | 1000.2 |
| 20260506082049 | 76 | 192 | 0.0 | 1.0 | 0.00 | 0.01 | 0.00 | 97 | 1000.2 |
| 20260506081949 | 76 | 192 | 0.0 | 1.0 | 0.00 | 0.01 | 0.00 | 97 | 1000.2 |
| 20260506081851 | 76 | 192 | 0.0 | 1.0 | 0.00 | 0.01 | 0.00 | 97 | 1000.3 |
| 20260506081751 | 76 | 206 | 0.0 | 1.0 | 0.00 | 0.01 | 0.00 | 97 | 1000.3 |
| 20260506081649 | 76 | 206 | 0.0 | 1.0 | 0.00 | 0.01 | 0.00 | 97 | 1000.3 |
| 20260506081551 | 76 | 207 | 0.0 | 1.0 | 0.00 | 0.01 | 0.00 | 96 | 1000.3 |
| 20260506081449 | 76 | 224 | 0.0 | 1.0 | 0.00 | 0.01 | 0.00 | 96 | 1000.3 |
| 20260506081351 | 76 | 240 | 0.0 | 1.0 | 0.00 | 0.01 | 0.00 | 96 | 1000.3 |
| 20260506081249 | 76 | 230 | 0.0 | 2.0 | 0.00 | 0.01 | 0.00 | 96 | 1000.3 |
| 20260506081150 | 76 | 230 | 0.0 | 2.0 | 0.00 | 0.01 | 0.00 | 96 | 1000.3 |
| 20260506081049 | 76 | 230 | 0.0 | 2.0 | 0.00 | 0.01 | 0.00 | 96 | 1000.3 |
| 20260506080951 | 76 | 259 | 0.0 | 2.0 | 0.00 | 0.01 | 0.00 | 96 | 1000.3 |
| 20260506080851 | 76 | 259 | 0.0 | 2.0 | 0.00 | 0.01 | 0.00 | 96 | 1000.2 |
| 20260506080749 | 76 | 176 | 0.0 | 2.0 | 0.00 | 0.01 | 0.00 | 96 | 1000.3 |
| 20260506080651 | 76 | 175 | 0.0 | 2.0 | 0.00 | 0.01 | 0.00 | 96 | 1000.3 |
| 20260506080549 | 76 | 199 | 0.0 | 2.0 | 0.00 | 0.01 | 0.00 | 96 | 1000.4 |
| 20260506080449 | 76 | 199 | 0.0 | 2.0 | 0.00 | 0.01 | 0.00 | 96 | 1000.3 |
| 20260506080350 | 76 | 193 | 0.0 | 2.0 | 0.00 | 0.01 | 0.00 | 96 | 1000.4 |
| 20260506080251 | 76 | 241 | 0.0 | 1.0 | 0.00 | 0.01 | 0.00 | 96 | 1000.4 |
| 20260506080149 | 76 | 241 | 0.0 | 1.0 | 0.00 | 0.01 | 0.00 | 96 | 1000.5 |